[{"header": {"dx": 0.06612293990616946, "dy": 0.0552356325346848, "nx": 98, "ny": 59, "la1": 35.046912555036876, "la2": 31.78801023549047, "lo1": -121.43107172385933, "lo2": -114.95102361305473, "refTime": "2026041701", "parameterCategory": 1, "parameterNumber": 2}, "data": [10.77, 10.76, 10.45, 10.43, 10.4, 10.36, 10.06, 10.01, 9.42, 9.3, 8.65, 7.9, 8.4, 7.76, 7.42, 6.65, 6.71, 6.71, 6.71, 6.71, 6.26, 6.71, 6.02, 2.76, -0.89, -3.33, -3.33, -3.33, -2.47, -2.8, -1.84, 0.0, 0.0, 1.08, 2.0, 2.95, 3.63, 4.43, 4.43, 5.49, 6.08, 7.44, 9.1, 10.55, 12.21, 13.11, 13.64, 12.56, 11.61, 11.06, 11.62, 12.07, 12.52, 12.49, 12.86, 13.32, 13.76, 13.77, 13.77, 13.77, 13.76, 13.32, 13.32, 13.21, 13.65, 13.96, 14.4, 14.87, 15.01, 15.01, 14.67, 14.28, 13.83, 13.39, 13.39, 13.86, 13.86, 13.84, 14.66, 13.32, 12.27, 10.93, 10.25, 10.25, 9.9, 9.6, 9.49, 8.95, 9.24, 9.75, 9.06, 7.15, 4.43, 2.51, 2.51, 3.55, 3.9, 4.74, 10.47, 10.76, 10.45, 10.75, 10.72, 10.69, 10.65, 9.72, 9.66, 9.02, 8.44, 8.68, 8.05, 7.6, 8.6, 7.94, 6.65, 7.06, 6.58, 6.02, 6.58, 6.07, 5.6, 2.8, -0.82, -3.33, -4.29, -3.72, -3.72, -2.8, -1.84, -0.81, 0.0, 0.98, 2.0, 3.48, 3.63, 4.43, 4.74, 5.06, 6.45, 8.0, 8.94, 9.66, 11.5, 12.79, 12.14, 10.68, 9.7, 9.81, 10.73, 11.18, 12.07, 12.07, 12.5, 13.39, 13.83, 13.84, 13.84, 13.77, 13.32, 13.21, 13.21, 13.05, 13.49, 13.96, 14.87, 15.45, 15.57, 15.12, 14.67, 13.84, 13.39, 13.41, 13.41, 13.86, 13.84, 13.84, 14.66, 13.32, 12.27, 10.93, 10.25, 10.25, 9.9, 9.6, 9.49, 8.95, 9.24, 9.75, 9.06, 7.15, 4.43, 2.51, 2.51, 3.55, 3.9, 4.74, 10.76, 10.76, 10.75, 11.03, 10.99, 10.69, 10.36, 10.3, 9.66, 9.02, 8.15, 7.44, 8.06, 7.67, 7.47, 7.63, 7.42, 7.42, 6.94, 7.21, 5.75, 6.23, 5.6, 2.6, -1.32, -3.33, -4.29, -3.72, -3.33, -2.64, -1.72, -1.6, -0.88, 0.0, 1.83, 2.8, 3.91, 4.29, 4.95, 5.69, 6.68, 8.3, 9.3, 10.29, 11.26, 11.5, 10.68, 9.7, 9.36, 9.83, 10.28, 10.73, 11.18, 11.62, 12.07, 12.96, 13.39, 13.84, 13.84, 13.76, 13.21, 13.01, 12.8, 12.8, 13.92, 14.55, 15.12, 15.57, 15.12, 14.67, 14.28, 13.83, 13.41, 12.96, 12.94, 13.39, 13.77, 14.22, 13.69, 13.21, 11.84, 10.45, 9.75, 9.75, 9.18, 9.34, 9.2, 9.03, 9.03, 8.55, 7.1, 4.19, 2.64, 2.51, 3.33, 4.29, 5.15, 5.82, 10.76, 11.06, 11.03, 11.03, 10.99, 10.99, 10.69, 10.65, 10.01, 9.37, 8.15, 7.23, 8.03, 7.67, 8.0, 8.0, 7.89, 7.76, 7.35, 7.21, 6.7, 7.06, 6.64, 4.11, 0.0, -3.91, -4.16, -3.33, -2.64, -1.63, -1.73, -1.63, -0.89, 0.0, 1.52, 2.49, 3.68, 5.31, 4.71, 5.49, 7.27, 8.65, 9.04, 9.65, 9.6, 9.75, 9.7, 9.8, 9.83, 10.28, 10.28, 11.18, 11.62, 11.62, 12.07, 12.52, 13.39, 13.76, 13.21, 13.21, 13.01, 12.37, 12.8, 13.29, 14.55, 14.67, 15.12, 14.69, 14.6, 14.23, 13.77, 12.86, 12.04, 11.62, 12.05, 12.86, 12.86, 13.32, 13.32, 12.27, 10.52, 10.45, 9.54, 9.24, 8.55, 8.95, 8.43, 7.67, 7.35, 5.75, 4.22, 2.47, 2.35, 2.64, 3.72, 5.15, 5.82, 6.16, 10.76, 11.06, 11.03, 11.03, 10.99, 10.99, 10.94, 10.65, 10.06, 9.08, 8.19, 7.55, 8.03, 8.18, 8.05, 8.05, 7.67, 8.0, 7.82, 7.42, 7.07, 5.93, 6.13, 5.93, 2.47, -1.4, -3.91, -2.66, -1.4, -0.83, -0.79, -0.79, -0.79, 0.0, 1.25, 2.4, 3.91, 4.71, 4.83, 4.71, 6.14, 7.35, 8.06, 8.95, 8.82, 9.06, 9.26, 9.8, 10.25, 10.73, 11.18, 11.62, 11.62, 11.62, 12.04, 12.49, 12.86, 13.21, 13.05, 12.58, 12.3, 12.3, 13.05, 14.11, 14.66, 14.22, 13.76, 13.21, 13.49, 12.87, 12.37, 11.61, 10.8, 11.06, 11.62, 11.15, 11.52, 11.96, 11.06, 11.42, 10.05, 9.97, 9.54, 8.82, 8.3, 7.35, 6.16, 5.29, 4.47, 3.48, 2.6, 2.47, 2.47, 3.47, 4.43, 5.21, 5.75, 5.2, 10.76, 11.06, 11.03, 11.03, 11.33, 10.99, 10.94, 10.65, 10.3, 9.42, 8.45, 7.55, 8.38, 7.76, 8.18, 8.05, 8.05, 8.18, 7.76, 7.35, 7.06, 5.1, 3.8, 3.6, 2.54, 0.0, -2.4, -1.25, -1.18, 0.0, 0.0, 0.0, 0.79, 1.65, 2.35, 1.52, 2.47, 4.58, 4.71, 4.07, 4.2, 6.01, 6.79, 7.6, 8.56, 8.63, 8.8, 9.26, 9.8, 10.28, 10.73, 10.73, 11.15, 11.06, 11.84, 12.27, 12.3, 12.58, 12.58, 12.58, 12.09, 12.3, 13.32, 13.84, 13.83, 12.87, 12.27, 11.45, 11.62, 11.75, 11.2, 11.09, 11.09, 11.84, 11.6, 10.73, 10.25, 10.16, 9.7, 10.16, 9.06, 9.06, 8.14, 6.7, 5.09, 4.02, 3.47, 2.84, 2.95, 1.7, 1.84, 1.84, 2.6, 3.35, 5.2, 5.59, 5.09, 3.93, 10.76, 11.06, 11.03, 11.03, 11.33, 10.99, 11.28, 10.69, 10.3, 9.42, 8.78, 7.59, 7.97, 8.42, 9.1, 8.06, 8.42, 8.42, 8.03, 7.64, 7.64, 7.27, 4.96, 2.83, 0.0, 0.0, -1.32, -1.32, -1.32, -0.89, 0.0, 0.89, 2.67, 4.03, 3.2, 2.47, 1.84, 3.16, 1.41, 0.83, 2.4, 3.68, 4.74, 5.75, 7.06, 7.11, 8.05, 8.49, 8.94, 9.83, 10.22, 9.54, 10.45, 10.68, 11.18, 11.84, 12.27, 12.27, 12.27, 11.84, 11.96, 12.52, 12.96, 12.94, 11.96, 10.95, 10.55, 10.23, 10.63, 11.2, 11.09, 10.85, 11.23, 12.42, 12.07, 11.18, 9.83, 8.9, 8.45, 7.42, 7.89, 6.02, 3.9, 2.24, -0.0, 0.85, 1.8, 1.8, 1.66, 0.96, 0.73, 1.66, 2.68, 3.83, 4.66, 4.85, 3.58, 1.8, 10.76, 11.06, 11.03, 11.03, 11.33, 10.99, 11.28, 10.94, 10.65, 9.46, 8.5, 7.3, 8.31, 8.73, 9.3, 8.32, 8.93, 9.04, 8.32, 8.03, 8.67, 8.88, 9.27, 8.42, 5.69, 1.23, -1.23, -2.8, -1.32, 0.0, 0.0, 1.14, 2.54, 3.91, 4.01, 3.22, 0.0, -2.0, -2.21, -1.9, 0.0, 2.21, 3.2, 4.47, 5.36, 6.14, 6.94, 8.33, 8.14, 9.54, 8.3, 9.33, 10.25, 10.68, 11.36, 11.52, 11.96, 12.04, 11.62, 11.62, 12.07, 12.05, 11.62, 10.16, 9.03, 9.67, 10.29, 10.04, 10.23, 10.55, 10.85, 11.36, 12.04, 12.96, 12.07, 10.73, 9.83, 8.94, 8.01, 5.59, 0.45, 0.89, -1.9, -1.74, -0.99, -0.0, -0.0, -0.0, -0.0, -0.0, 0.76, 1.74, 2.98, 4.38, 4.38, 3.6, 1.8, 0.88, 10.76, 10.76, 11.03, 11.03, 11.33, 11.33, 11.28, 10.94, 10.36, 9.72, 8.85, 7.61, 8.54, 8.07, 8.22, 8.64, 8.97, 8.6, 7.97, 7.68, 8.37, 9.1, 10.4, 11.27, 10.43, 8.63, 3.16, 1.79, 0.0, 0.0, 0.0, 0.0, 1.8, 4.02, 4.38, 4.82, 2.24, -2.98, -0.0, -0.0, 1.8, 3.16, 4.46, 5.2, 5.81, 6.16, 7.2, 7.6, 7.82, 8.4, 9.2, 8.82, 9.75, 10.45, 10.6, 11.15, 11.18, 11.18, 10.73, 11.15, 11.51, 10.25, 7.89, 6.73, 7.48, 8.85, 9.56, 9.27, 9.04, 9.6, 10.93, 11.6, 12.96, 12.5, 11.53, 10.62, 9.8, 8.9, 8.33, 5.16, -1.58, -3.2, -3.22, -3.22, -2.53, -2.21, -1.49, -1.2, -1.0, -0.0, -0.0, 1.6, 2.68, 3.47, 2.98, 1.98, 0.79, 0.88, 10.76, 10.76, 10.75, 11.03, 11.33, 11.33, 11.28, 11.28, 10.36, 9.77, 9.17, 8.87, 8.56, 7.95, 8.72, 7.64, 7.93, 7.64, 7.24, 6.16, 6.16, 6.97, 7.95, 9.42, 9.66, 9.1, 6.79, 4.24, 2.53, 3.13, 2.24, -0.0, -0.0, 1.8, 4.09, 5.2, 2.73, -0.0, 1.3, 4.43, 4.43, 5.15, 5.46, 6.16, 6.16, 6.16, 6.4, 6.82, 7.44, 8.05, 8.4, 8.55, 8.82, 9.06, 9.06, 9.35, 9.39, 9.39, 9.36, 9.7, 8.8, 6.45, 5.72, 5.63, 7.12, 7.9, 7.9, 7.8, 8.58, 9.49, 11.15, 11.62, 12.44, 12.35, 11.71, 10.32, 9.75, 8.82, 7.98, 6.0, 0.0, -4.92, -4.85, -4.66, -4.15, -3.47, -2.97, -2.24, -1.79, -0.89, 0.45, 0.89, 1.79, 1.9, 1.98, 0.98, 0.79, 0.88, 10.76, 10.76, 10.45, 11.03, 11.03, 11.33, 11.33, 11.28, 10.94, 10.36, 10.09, 9.8, 9.8, 9.48, 10.22, 8.85, 8.53, 6.35, 6.35, 6.35, 7.24, 6.7, 6.7, 6.84, 7.65, 7.56, 6.8, 4.92, 3.6, 1.8, 1.6, -0.0, -0.0, 0.99, 2.98, 4.66, 4.11, 3.76, 3.22, 5.15, 5.82, 5.82, 6.4, 7.21, 6.23, 5.2, 4.43, 5.15, 5.82, 6.8, 7.2, 7.44, 6.73, 6.39, 6.11, 5.77, 6.44, 6.94, 7.55, 6.94, 4.57, 3.06, 4.75, 5.48, 6.52, 6.4, 7.23, 6.9, 7.9, 8.55, 10.25, 11.15, 12.18, 11.8, 10.94, 9.52, 8.88, 8.43, 8.0, 6.82, 3.16, -1.34, -3.95, -5.81, -4.92, -4.02, -3.04, -2.6, -1.9, -1.58, -1.26, 1.34, -0.0, -0.0, -0.0, -0.0, -0.0, 0.79, 10.76, 10.76, 10.45, 11.03, 11.03, 11.33, 11.33, 11.33, 11.28, 10.94, 10.69, 10.4, 10.12, 10.4, 10.65, 10.51, 8.84, 7.64, 7.09, 8.0, 8.55, 8.82, 7.76, 9.48, 8.15, 8.22, 8.41, 4.47, 6.45, 5.2, 3.6, 2.53, 1.13, 2.53, 3.6, 3.93, 4.19, 4.43, 5.15, 5.82, 6.18, 6.8, 6.4, 7.21, 5.6, 3.48, 3.79, 4.11, 4.11, 4.11, 3.47, 4.26, 4.34, 4.2, 3.32, 3.32, 4.2, 5.37, 4.92, 2.24, -0.0, 2.39, 4.87, 4.71, 4.76, 4.71, 5.56, 6.28, 6.33, 7.35, 8.67, 9.74, 10.52, 10.63, 9.27, 7.9, 7.27, 7.02, 7.32, 6.32, 4.92, 4.54, 3.79, -5.36, -5.31, -4.15, -3.6, -2.84, -2.41, -2.53, -2.6, -2.0, -2.24, -1.2, -0.0, -0.0, -0.0, -0.0, 10.76, 10.76, 10.45, 11.03, 11.03, 11.03, 11.58, 11.58, 11.33, 10.99, 10.99, 10.72, 10.4, 10.72, 11.28, 11.72, 11.5, 10.4, 10.21, 10.42, 10.91, 11.56, 12.18, 11.95, 11.16, 10.73, 10.71, 10.6, 10.04, 8.42, 8.01, 6.02, 4.22, 4.22, 4.6, 4.54, 4.46, 5.15, 5.15, 5.82, 6.4, 6.4, 6.7, 6.02, 4.8, 2.84, 2.48, 2.73, 2.73, 1.55, 1.7, 1.72, 1.63, 1.55, 2.21, 2.33, 3.52, 6.32, 4.47, -0.0, -0.0, 2.39, 4.81, 4.1, 3.17, 4.04, 4.31, 4.91, 4.81, 6.56, 8.42, 9.04, 8.45, 6.79, 5.06, 4.71, 4.83, 4.96, 5.0, 4.8, 4.46, 5.37, 6.32, 6.7, -2.68, -4.0, -3.58, -2.68, -2.3, -2.3, -2.41, -3.04, -2.97, -2.21, -0.99, -0.0, -0.0, -0.0, 10.76, 10.76, 10.45, 11.03, 11.36, 11.36, 11.63, 11.92, 11.58, 11.58, 10.99, 10.99, 10.99, 10.99, 11.33, 11.87, 12.27, 12.79, 12.62, 12.53, 12.3, 12.78, 13.54, 14.11, 14.26, 14.3, 14.29, 14.26, 13.75, 12.84, 10.27, 8.9, 7.5, 5.59, 5.75, 5.6, 5.05, 5.58, 5.82, 6.21, 6.7, 6.51, 6.61, 6.14, 4.46, 2.73, 1.8, 2.48, 2.73, 1.19, 1.19, 1.55, 1.19, 1.3, 1.3, 0.81, 1.7, 6.64, 8.05, 1.84, -0.0, 2.37, 4.65, 3.47, 3.19, 3.29, 2.95, 2.95, 4.32, 6.45, 8.76, 6.95, 1.98, -1.13, 0.0, 0.0, 1.73, 2.6, 4.34, 5.6, 6.39, 7.07, 7.47, 6.85, 4.85, 1.79, -2.23, -2.53, -2.2, -2.2, -2.41, -3.58, -3.6, -2.84, -0.87, -0.0, -0.0, 0.98, 10.76, 10.76, 10.76, 11.36, 11.36, 11.36, 11.63, 11.63, 11.92, 11.58, 11.58, 11.33, 11.28, 11.28, 11.28, 11.87, 12.37, 12.82, 13.87, 14.03, 13.81, 13.99, 14.16, 14.47, 14.65, 14.74, 14.75, 14.74, 14.26, 13.75, 12.4, 9.82, 9.39, 7.97, 7.5, 6.64, 6.13, 5.82, 7.2, 6.28, 7.1, 7.6, 6.71, 5.2, 4.11, 2.4, 1.3, 1.19, 2.98, 2.73, 2.73, 2.48, 1.41, 1.8, 1.6, 2.21, 3.13, 6.21, 8.91, 6.64, 2.39, 3.45, 4.88, 4.66, 3.7, 2.33, 2.33, 2.54, 4.14, 7.21, 7.41, 3.35, -4.34, -6.2, -4.6, -2.23, 0.0, 4.0, 5.77, 7.76, 8.06, 8.4, 7.89, 7.12, 6.26, 5.36, 2.97, 0.0, 0.0, 0.0, -2.21, -3.47, -3.83, -2.53, -0.96, 0.81, 1.83, 1.83, 10.76, 10.76, 11.06, 11.36, 11.36, 11.63, 11.63, 11.63, 11.92, 11.58, 11.58, 11.58, 11.87, 11.87, 11.87, 11.87, 11.87, 12.93, 13.75, 14.39, 14.73, 14.72, 15.07, 14.9, 15.02, 15.15, 15.2, 15.2, 15.19, 14.71, 14.2, 12.91, 10.28, 10.28, 8.49, 6.51, 6.7, 6.4, 7.21, 7.5, 6.71, 6.26, 6.14, 4.43, 3.76, 2.8, 2.8, 2.6, 2.6, 3.22, 2.98, 3.48, 4.46, 3.72, 3.13, 2.8, 4.24, 6.58, 8.41, 7.81, 6.24, 7.21, 7.44, 6.28, 4.02, 2.32, 1.84, 2.6, 4.74, 6.52, 6.16, 1.79, -5.29, -5.36, -2.97, 0.98, 4.03, 7.18, 8.6, 9.0, 8.67, 8.3, 7.55, 6.71, 6.21, 6.2, 5.81, 4.57, 3.48, 2.84, 0.0, -3.84, -2.2, -0.74, 0.78, 1.52, 3.11, 3.11, 10.76, 10.76, 11.06, 11.06, 11.36, 11.96, 11.63, 11.63, 11.92, 11.92, 11.58, 11.58, 11.87, 11.87, 11.87, 11.87, 12.09, 12.45, 13.3, 14.15, 14.51, 14.94, 14.95, 15.25, 15.02, 15.6, 16.08, 16.09, 16.09, 16.09, 15.64, 14.75, 12.96, 12.02, 7.56, 6.71, 6.65, 7.06, 6.58, 6.71, 6.71, 4.85, 5.2, 3.79, 3.76, 2.8, 2.49, 4.02, 3.76, 4.11, 4.11, 5.2, 5.6, 5.81, 5.2, 4.92, 5.81, 7.06, 7.81, 8.0, 8.0, 8.15, 7.81, 6.8, 4.11, 1.8, 1.41, 2.48, 5.2, 6.23, 7.15, 1.98, -3.39, -2.4, 2.76, 5.49, 7.82, 9.48, 10.24, 9.66, 9.05, 8.72, 7.42, 6.71, 6.65, 6.2, 6.21, 6.02, 5.51, 3.39, 0.89, -2.3, -1.44, -0.0, 1.58, 2.26, 3.47, 3.47, 10.76, 11.06, 11.06, 11.06, 11.96, 11.96, 11.63, 11.63, 11.92, 11.92, 11.58, 11.58, 11.87, 11.87, 11.87, 12.37, 12.45, 12.45, 12.93, 13.23, 13.99, 14.73, 14.72, 14.78, 15.46, 16.05, 15.99, 16.05, 16.05, 16.05, 15.6, 15.15, 14.26, 11.49, 8.79, 8.01, 7.1, 7.15, 6.71, 6.26, 5.81, 5.2, 4.09, 3.79, 3.76, 4.02, 4.02, 4.74, 5.36, 5.36, 5.81, 6.23, 5.75, 5.36, 5.36, 5.01, 5.37, 6.13, 7.6, 7.76, 8.63, 8.63, 8.17, 7.21, 5.2, 1.98, 0.99, 2.84, 5.64, 7.6, 9.83, 9.36, 9.8, 10.25, 9.84, 9.67, 10.29, 11.28, 11.5, 10.8, 9.9, 9.06, 8.33, 6.26, 6.26, 5.81, 5.75, 6.26, 6.26, 5.81, 4.57, 1.63, -0.0, 0.72, 2.35, 3.45, 4.46, 4.46, 10.76, 11.06, 11.06, 11.38, 11.96, 11.96, 11.63, 11.63, 11.92, 11.92, 11.58, 11.58, 11.87, 11.87, 11.87, 13.51, 12.16, 12.37, 11.72, 12.95, 13.99, 14.91, 14.22, 14.58, 14.21, 15.25, 12.18, 14.21, 14.64, 13.41, 13.88, 14.0, 13.21, 11.49, 9.68, 8.3, 7.26, 7.26, 8.14, 7.97, 7.15, 6.65, 6.58, 5.81, 5.36, 4.74, 4.74, 5.36, 6.23, 6.64, 6.64, 5.36, 4.74, 4.02, 3.68, 4.75, 5.93, 6.28, 7.44, 8.15, 8.63, 8.6, 8.17, 6.02, 4.22, 2.95, 2.95, 4.22, 5.59, 7.97, 11.57, 14.55, 17.91, 18.82, 16.96, 13.96, 12.74, 12.42, 12.86, 12.41, 10.25, 8.9, 8.01, 7.12, 6.65, 6.45, 5.82, 6.7, 7.12, 7.47, 7.44, 4.83, 2.39, 2.21, 4.07, 4.96, 4.83, 4.83, 10.76, 11.06, 11.38, 11.38, 11.96, 11.63, 11.63, 11.63, 11.92, 11.92, 11.58, 11.87, 11.87, 11.87, 12.45, 12.73, 12.37, 11.23, 11.9, 11.9, 14.11, 13.9, 13.48, 13.51, 13.49, 13.35, 13.11, 11.41, 11.92, 12.11, 11.87, 11.71, 11.4, 10.58, 9.32, 8.3, 7.74, 8.0, 8.48, 9.23, 9.37, 9.39, 8.92, 7.52, 5.88, 6.13, 6.23, 6.23, 6.64, 6.64, 5.72, 5.06, 3.68, 3.68, 3.47, 4.16, 6.32, 6.06, 7.44, 8.79, 8.6, 8.41, 7.06, 5.2, 3.35, 3.11, 3.33, 5.06, 6.07, 8.3, 11.66, 16.05, 19.73, 21.32, 19.65, 16.52, 14.4, 13.29, 12.58, 11.52, 10.73, 9.83, 8.94, 8.01, 7.42, 6.94, 6.7, 7.33, 7.32, 7.92, 6.64, 4.71, 3.78, 4.07, 5.04, 5.76, 5.89, 5.89, 11.38, 11.38, 11.38, 11.38, 11.36, 11.63, 11.63, 11.63, 11.92, 11.92, 11.58, 11.87, 11.87, 12.09, 12.45, 13.01, 12.73, 11.23, 10.65, 12.87, 13.51, 12.37, 12.09, 12.37, 13.2, 13.62, 13.31, 12.33, 12.04, 11.39, 10.66, 10.34, 9.57, 9.23, 8.42, 7.4, 7.26, 7.51, 8.48, 9.39, 10.04, 10.67, 10.27, 8.94, 7.07, 7.5, 6.58, 7.01, 7.01, 5.36, 4.02, 3.68, 3.68, 3.68, 3.68, 4.16, 5.59, 6.68, 8.15, 8.17, 7.97, 7.06, 5.64, 3.49, 2.35, 2.54, 3.27, 4.12, 5.89, 7.35, 9.66, 13.43, 17.47, 18.26, 16.92, 15.61, 13.61, 12.87, 11.9, 11.5, 10.93, 10.25, 8.94, 8.01, 8.33, 7.35, 7.44, 6.98, 7.33, 6.98, 5.89, 4.71, 4.92, 5.28, 5.86, 6.64, 6.32, 6.32, 11.38, 11.38, 11.38, 11.06, 11.36, 11.63, 11.63, 11.92, 11.92, 11.58, 11.58, 11.87, 11.87, 12.45, 13.01, 13.01, 12.45, 11.87, 11.87, 13.01, 12.93, 11.72, 11.16, 11.44, 13.2, 14.15, 14.73, 14.23, 13.09, 12.04, 11.24, 10.47, 9.68, 8.79, 8.41, 7.4, 6.94, 7.01, 7.51, 8.0, 8.96, 9.57, 9.68, 8.87, 7.6, 5.81, 7.15, 7.15, 6.58, 4.43, 2.49, 3.68, 3.45, 2.49, 2.66, 3.91, 5.1, 5.76, 7.21, 6.52, 5.2, 4.6, 2.76, 1.63, 2.31, 2.44, 3.15, 4.12, 4.6, 5.98, 6.16, 9.21, 12.52, 13.01, 6.39, 7.9, 9.8, 10.75, 10.75, 10.82, 10.63, 10.02, 9.39, 8.49, 8.33, 7.42, 7.06, 7.06, 7.33, 6.68, 5.86, 6.05, 6.51, 6.88, 7.31, 6.98, 6.64, 6.64, 11.38, 11.38, 11.38, 11.06, 11.36, 11.36, 11.63, 11.92, 11.92, 11.58, 11.58, 11.87, 12.45, 12.51, 13.01, 13.01, 12.65, 12.45, 12.8, 13.38, 13.48, 12.54, 11.5, 11.07, 11.9, 13.62, 14.39, 14.94, 14.23, 13.69, 12.51, 11.71, 10.5, 9.57, 8.79, 8.3, 7.84, 7.26, 6.79, 7.21, 7.69, 8.17, 8.17, 7.87, 6.61, 5.78, 7.15, 6.26, 4.8, 2.6, 2.49, 3.45, 4.02, 2.49, 2.49, 3.91, 3.6, 4.0, 4.96, 5.06, 3.63, 2.6, 2.35, 2.54, 2.44, 3.32, 3.32, 4.12, 4.12, 3.91, 3.8, 5.31, 12.09, 8.17, 4.02, 3.22, 5.09, 6.64, 8.22, 9.17, 9.21, 10.0, 9.26, 8.94, 8.56, 7.44, 6.39, 6.39, 6.95, 7.48, 6.51, 7.15, 7.9, 7.61, 7.31, 7.33, 6.64, 6.64, 11.08, 11.08, 11.38, 11.38, 11.36, 11.36, 11.63, 11.92, 11.58, 11.58, 11.58, 11.92, 12.16, 12.73, 12.73, 13.01, 12.65, 12.65, 13.01, 13.01, 13.48, 12.82, 12.54, 12.03, 12.16, 12.54, 13.48, 14.22, 14.44, 14.23, 13.51, 12.78, 12.04, 11.24, 10.47, 9.57, 8.67, 8.33, 7.87, 7.4, 6.94, 6.94, 6.79, 6.3, 5.81, 5.09, 7.06, 6.26, 4.46, 2.6, 2.49, 2.8, 2.8, 2.8, 2.49, 2.66, 1.63, 1.65, 3.8, 3.8, 3.55, 2.64, 2.51, 2.54, 2.57, 3.32, 4.0, 4.88, 5.1, 4.95, 5.15, 10.73, 15.01, 15.1, 13.8, 10.8, 9.21, 8.94, 9.11, 7.95, 9.19, 9.52, 9.6, 9.36, 8.14, 6.82, 6.44, 6.01, 6.53, 7.24, 7.73, 8.53, 9.21, 8.94, 7.95, 7.33, 6.98, 6.98, 11.38, 11.38, 11.38, 11.06, 11.06, 11.36, 11.36, 11.58, 11.58, 11.58, 11.58, 12.16, 12.51, 12.73, 12.73, 13.01, 12.65, 13.01, 13.01, 13.01, 13.3, 13.2, 12.82, 13.09, 12.95, 12.42, 12.95, 12.95, 13.71, 13.53, 13.74, 13.09, 12.78, 12.04, 11.56, 10.81, 10.04, 9.57, 9.11, 8.33, 7.4, 6.51, 5.88, 5.6, 5.08, 5.31, 5.24, 4.92, 3.87, 2.53, 1.8, 1.41, 1.41, 1.52, 1.23, 1.32, 1.18, -0.0, -0.0, 3.6, 4.71, 4.16, 2.51, 2.54, 2.44, 3.32, 4.0, 5.21, 5.49, 6.18, 7.42, 9.83, 15.02, 16.54, 17.38, 16.85, 15.46, 14.42, 12.47, 9.54, 9.34, 9.45, 9.6, 8.91, 7.21, 5.82, 5.77, 5.89, 6.7, 7.8, 9.4, 9.8, 10.47, 9.92, 8.23, 7.33, 6.98, 6.98, 11.38, 11.38, 11.38, 11.06, 11.06, 11.36, 11.36, 11.33, 11.58, 11.58, 11.92, 12.16, 12.51, 12.73, 13.01, 13.01, 13.01, 13.01, 13.01, 13.3, 12.93, 12.93, 13.2, 13.36, 13.23, 13.34, 12.95, 12.79, 12.79, 13.02, 13.02, 12.83, 12.6, 12.11, 11.87, 11.56, 11.08, 10.81, 10.34, 9.57, 8.67, 7.87, 6.79, 5.6, 5.08, 4.9, 5.09, 4.8, 4.47, 3.09, 1.16, -0.0, -0.0, -0.0, 1.32, 1.32, -0.0, -0.0, -0.0, 2.49, 5.03, 4.96, 3.4, 2.54, 2.44, 3.15, 4.96, 5.49, 6.73, 7.42, 7.71, 10.66, 12.42, 15.61, 16.19, 15.99, 15.59, 15.34, 12.87, 10.16, 8.4, 7.92, 7.2, 5.81, 4.84, 5.15, 6.01, 6.53, 7.08, 8.16, 9.56, 10.78, 12.05, 10.79, 9.19, 8.03, 7.95, 7.95, 11.38, 11.38, 11.38, 11.06, 11.36, 11.36, 11.03, 11.33, 11.58, 11.58, 11.92, 12.51, 12.51, 12.51, 12.8, 12.45, 13.01, 13.01, 12.93, 12.93, 12.93, 12.93, 12.93, 13.2, 13.36, 13.62, 13.48, 13.19, 12.79, 12.51, 12.11, 11.82, 11.82, 11.82, 11.62, 11.62, 11.62, 11.39, 11.33, 11.08, 10.66, 10.18, 9.39, 6.6, 5.81, 5.31, 5.09, 4.66, 4.77, 3.58, 1.9, -0.0, -0.59, -0.0, -0.0, -0.0, -0.0, -0.0, -0.0, 1.84, 3.68, 4.03, 3.52, 2.44, 3.7, 3.91, 5.1, 6.73, 7.44, 8.0, 9.24, 10.25, 11.62, 13.32, 14.21, 14.58, 15.35, 14.03, 11.62, 7.89, 5.82, 4.46, 4.38, 4.15, 5.43, 6.08, 7.35, 7.9, 8.53, 8.93, 9.57, 10.79, 12.89, 11.9, 10.15, 8.82, 8.55, 8.55, 11.38, 11.38, 11.06, 11.06, 11.36, 11.36, 11.03, 11.33, 11.33, 11.92, 12.16, 12.51, 12.51, 12.51, 12.45, 12.45, 13.01, 13.01, 12.93, 12.93, 12.93, 12.93, 12.93, 12.93, 13.2, 13.36, 13.23, 13.48, 13.31, 12.79, 12.51, 12.11, 11.82, 11.41, 11.41, 11.54, 11.21, 11.21, 11.12, 11.33, 10.91, 10.42, 10.18, 9.21, 8.48, 7.69, 6.79, 5.09, 5.09, 4.34, 2.6, -0.0, -0.53, -0.51, -0.59, -0.0, -0.0, -0.0, -0.0, 0.82, 1.72, 2.51, 3.27, 3.32, 4.12, 5.72, 6.32, 6.79, 7.76, 8.63, 9.7, 10.73, 11.18, 11.62, 12.52, 13.86, 15.2, 14.3, 11.62, 8.05, 5.75, 3.13, 3.87, 7.2, 8.14, 8.49, 8.58, 9.27, 9.62, 10.29, 10.28, 11.2, 12.86, 12.64, 11.3, 10.09, 9.45, 9.45, 11.06, 11.06, 11.06, 11.06, 11.36, 11.03, 11.03, 11.03, 11.33, 11.92, 12.51, 12.51, 12.51, 12.45, 12.45, 12.45, 13.01, 13.01, 12.93, 12.93, 12.93, 12.93, 12.93, 13.2, 12.82, 12.82, 13.09, 13.09, 12.95, 13.19, 12.79, 12.51, 12.33, 11.82, 11.41, 10.91, 11.12, 11.12, 11.12, 11.12, 10.71, 10.91, 10.42, 10.43, 9.24, 7.69, 7.51, 6.28, 5.75, 4.8, 3.13, 0.99, -0.0, -0.65, -1.16, -0.51, -0.0, -0.0, -0.0, -0.0, 0.89, 1.63, 2.67, 3.8, 4.96, 6.53, 6.83, 7.06, 7.2, 7.85, 8.8, 10.45, 11.51, 11.62, 12.74, 14.21, 14.87, 14.73, 14.73, 13.76, 12.42, 8.33, 8.67, 8.96, 10.94, 10.09, 9.78, 9.92, 10.87, 11.2, 11.2, 11.62, 12.22, 12.66, 12.13, 10.94, 9.6, 9.6, 10.76, 10.76, 10.76, 11.06, 11.36, 11.03, 11.03, 11.03, 11.33, 11.92, 11.92, 12.51, 12.16, 12.45, 12.45, 12.45, 13.01, 12.65, 12.93, 12.93, 12.93, 12.93, 12.93, 12.82, 12.65, 12.27, 12.54, 12.7, 12.95, 12.95, 12.79, 13.02, 12.51, 12.33, 11.82, 11.41, 11.31, 11.12, 11.12, 11.12, 11.12, 10.71, 10.62, 9.92, 8.72, 9.24, 8.82, 6.28, 5.01, 4.12, 2.84, 1.34, -0.0, -0.0, -0.54, -1.2, -0.61, -0.0, -0.0, -0.0, 0.82, 1.72, 2.51, 4.03, 5.36, 5.76, 5.9, 7.27, 5.59, 5.82, 6.8, 9.03, 12.15, 14.21, 14.3, 14.4, 14.4, 14.66, 15.65, 16.82, 17.27, 13.21, 12.31, 11.08, 9.71, 11.3, 10.73, 11.04, 11.47, 12.22, 12.01, 12.58, 12.66, 12.98, 12.22, 11.3, 10.27, 10.27, 10.76, 10.76, 10.76, 10.76, 10.75, 11.03, 11.03, 11.03, 11.36, 11.63, 11.92, 11.92, 12.16, 12.45, 12.45, 12.8, 13.01, 12.65, 12.93, 12.93, 12.93, 12.93, 12.56, 12.65, 12.65, 12.27, 12.54, 12.16, 12.42, 12.95, 13.19, 12.79, 12.39, 12.51, 12.11, 11.82, 11.41, 11.41, 11.12, 11.12, 11.12, 11.12, 10.62, 10.21, 9.2, 9.6, 8.95, 6.6, 4.94, 3.83, 2.86, 2.12, 1.79, 0.6, -0.0, -0.57, -0.65, -0.51, -0.0, -0.0, 0.82, 1.72, 3.33, 4.95, 5.24, 4.83, 4.5, 4.88, 5.98, 7.21, 6.11, 7.35, 10.9, 15.35, 17.25, 15.2, 13.49, 12.58, 13.32, 15.65, 17.42, 17.3, 13.1, 11.87, 10.71, 10.4, 9.88, 11.73, 12.22, 12.44, 12.18, 12.35, 12.79, 12.79, 12.44, 11.52, 10.6, 10.6, 10.76, 10.76, 10.76, 10.45, 10.75, 10.75, 11.03, 11.03, 11.36, 11.63, 11.92, 11.92, 11.92, 12.45, 12.45, 12.45, 12.45, 12.45, 12.45, 12.73, 12.93, 12.37, 12.37, 12.65, 12.27, 12.27, 12.16, 11.99, 12.89, 12.14, 12.42, 12.56, 12.79, 12.28, 12.51, 12.11, 11.82, 11.82, 11.41, 11.41, 11.12, 11.12, 10.71, 10.62, 9.88, 10.11, 9.51, 8.48, 7.01, 5.75, 4.65, 3.87, 3.13, 3.58, 3.58, 0.6, -0.0, -0.61, -0.0, -0.0, 0.89, 1.72, 3.33, 4.65, 4.95, 4.42, 4.16, 4.75, 6.01, 8.0, 7.41, 7.41, 9.48, 14.6, 18.58, 18.5, 13.41, 10.16, 10.7, 12.96, 15.58, 16.74, 16.44, 13.73, 12.78, 11.7, 11.39, 10.66, 13.01, 12.35, 12.43, 12.05, 12.05, 12.43, 12.33, 11.42, 10.96, 10.96, 10.45, 10.45, 10.45, 10.45, 10.75, 10.75, 11.03, 11.36, 11.36, 11.63, 11.92, 11.92, 11.92, 11.92, 12.45, 12.45, 12.45, 12.45, 12.45, 12.73, 12.73, 12.37, 12.65, 12.27, 12.27, 12.27, 12.16, 11.99, 11.62, 12.86, 11.5, 11.88, 12.03, 12.28, 12.28, 12.28, 12.11, 11.99, 11.82, 11.41, 11.41, 11.62, 11.12, 10.62, 10.21, 10.21, 10.42, 9.7, 9.54, 8.91, 8.17, 7.07, 5.81, 4.92, 4.92, 4.47, 3.98, -0.0, -0.0, -0.0, 0.59, 2.64, 3.91, 3.55, 4.03, 4.42, 4.16, 5.06, 6.28, 7.81, 8.06, 8.05, 9.24, 12.74, 18.96, 21.54, 17.44, 13.05, 12.33, 13.78, 15.5, 16.86, 17.64, 17.2, 13.54, 12.18, 11.4, 11.04, 13.32, 12.49, 12.52, 11.62, 11.62, 12.07, 12.05, 11.96, 10.63, 10.63, 10.45, 10.45, 10.45, 10.45, 10.75, 10.75, 11.03, 11.36, 11.36, 11.63, 11.92, 11.92, 11.92, 11.92, 12.45, 12.45, 12.45, 12.45, 12.45, 12.73, 12.37, 12.37, 12.27, 12.27, 12.27, 12.27, 12.16, 12.16, 12.54, 12.42, 11.5, 11.75, 11.5, 11.88, 12.03, 12.28, 12.28, 12.11, 11.99, 11.82, 11.82, 11.41, 11.62, 11.12, 10.62, 10.21, 10.21, 10.0, 10.18, 10.34, 10.01, 9.23, 8.03, 6.68, 5.81, 5.81, 5.36, 4.77, 0.59, -0.0, -0.0, 2.4, 3.4, 3.6, 3.2, 4.42, 4.95, 4.95, 6.28, 7.21, 7.35, 8.73, 10.18, 12.49, 16.97, 19.86, 19.51, 17.79, 16.47, 16.6, 16.93, 16.97, 16.97, 16.08, 15.13, 11.57, 10.71, 10.28, 12.96, 12.52, 12.05, 12.04, 11.6, 11.6, 12.07, 11.6, 11.15, 11.15, 10.45, 10.45, 10.45, 10.45, 10.75, 10.75, 11.03, 11.03, 11.36, 11.36, 11.58, 11.58, 11.58, 11.92, 11.92, 12.45, 12.09, 12.09, 12.45, 12.37, 12.37, 12.37, 12.0, 12.27, 12.27, 11.9, 12.16, 12.16, 12.16, 12.16, 12.03, 11.75, 11.75, 11.75, 11.5, 11.88, 12.28, 12.28, 11.88, 12.11, 12.11, 11.82, 11.41, 11.12, 10.71, 10.62, 10.21, 10.21, 10.42, 10.18, 10.34, 9.57, 8.77, 7.51, 6.61, 6.23, 5.81, 5.79, 5.09, 1.05, -0.0, 1.14, 2.4, 3.6, 4.71, 5.31, 4.95, 5.69, 5.69, 6.73, 7.02, 8.94, 11.62, 13.65, 15.57, 16.69, 17.89, 18.16, 18.16, 18.35, 17.3, 16.54, 15.2, 14.3, 13.84, 10.28, 9.83, 12.52, 12.49, 11.98, 11.52, 11.08, 11.51, 11.53, 11.6, 11.6, 11.62, 11.62, 10.13, 10.13, 10.13, 10.45, 10.75, 10.75, 10.75, 11.03, 11.03, 11.03, 11.33, 11.58, 11.58, 11.58, 11.58, 11.87, 12.09, 12.09, 12.09, 12.37, 12.37, 12.37, 12.0, 12.09, 12.09, 11.9, 11.9, 12.16, 12.16, 12.16, 12.42, 12.03, 12.28, 11.75, 11.75, 11.75, 11.75, 11.75, 11.75, 11.88, 12.11, 11.82, 11.82, 11.62, 11.12, 10.71, 10.71, 10.62, 10.42, 10.42, 10.12, 9.43, 9.11, 8.3, 6.97, 6.6, 6.26, 6.23, 6.16, 2.18, 0.57, 1.12, 2.4, 3.2, 4.83, 6.32, 5.37, 4.95, 5.24, 5.69, 7.56, 7.68, 11.99, 13.99, 15.31, 14.66, 14.87, 16.53, 17.87, 18.56, 18.2, 16.03, 14.23, 12.94, 12.5, 12.52, 12.52, 12.07, 11.62, 11.18, 10.73, 10.7, 11.18, 11.18, 11.18, 11.62, 11.62, 11.62, 10.13, 10.13, 10.13, 10.13, 10.75, 10.75, 10.75, 11.03, 11.03, 11.33, 11.33, 11.33, 11.58, 11.58, 11.87, 11.87, 11.87, 12.09, 12.37, 12.37, 12.37, 11.8, 11.8, 12.09, 12.09, 11.72, 11.72, 11.99, 11.99, 11.99, 12.16, 12.42, 12.03, 12.28, 11.75, 11.75, 11.75, 11.75, 11.75, 11.75, 11.75, 11.6, 11.41, 12.04, 10.42, 10.71, 10.71, 10.71, 10.62, 10.42, 10.18, 9.7, 8.96, 8.64, 7.87, 7.07, 6.71, 6.71, 5.31, 2.84, 1.12, 1.2, 2.4, 3.2, 4.83, 6.01, 4.42, 4.83, 5.24, 5.69, 6.01, 7.35, 10.41, 14.61, 15.35, 14.11, 12.94, 15.18, 17.43, 17.88, 17.37, 15.95, 14.15, 12.88, 11.99, 11.99, 12.05, 11.15, 11.08, 11.08, 11.08, 11.08, 11.52, 11.6, 11.6, 11.6, 11.6, 11.62, 9.84, 9.84, 9.84, 9.84, 10.75, 10.75, 10.75, 10.75, 11.03, 11.33, 11.33, 11.33, 11.33, 11.58, 11.87, 11.87, 11.87, 11.87, 12.37, 12.16, 11.8, 11.8, 11.8, 12.09, 12.09, 11.72, 11.72, 11.72, 11.99, 11.99, 11.62, 11.78, 12.42, 12.03, 12.28, 12.28, 11.75, 11.75, 11.75, 11.75, 11.75, 11.36, 11.08, 11.75, 10.42, 10.71, 10.91, 10.4, 10.62, 10.21, 10.0, 9.7, 9.39, 9.11, 8.77, 7.97, 7.15, 7.15, 6.14, 3.79, 1.8, 1.65, 2.4, 3.55, 4.42, 4.71, 4.96, 4.83, 4.83, 5.24, 6.01, 7.21, 9.48, 13.35, 16.95, 15.77, 13.65, 14.28, 15.13, 15.18, 14.3, 13.34, 12.79, 12.18, 11.75, 12.18, 12.66, 12.14, 12.14, 12.14, 12.14, 12.3, 11.98, 11.96, 12.04, 11.6, 11.62, 11.6, 9.84, 9.84, 9.84, 9.84, 10.13, 10.43, 10.75, 10.75, 10.43, 10.99, 10.99, 10.99, 10.99, 11.28, 11.28, 11.52, 11.52, 11.87, 12.16, 11.8, 11.8, 11.8, 11.8, 11.72, 11.72, 11.72, 11.72, 11.72, 11.99, 11.99, 11.99, 11.62, 11.88, 12.03, 12.03, 12.03, 12.28, 11.75, 11.75, 11.75, 11.75, 11.36, 11.22, 10.55, 11.75, 10.62, 10.8, 10.4, 9.88, 10.11, 9.92, 9.7, 9.39, 9.11, 9.23, 8.42, 8.03, 7.6, 6.23, 4.29, 2.82, 1.8, 2.18, 3.91, 4.14, 3.8, 4.26, 5.24, 5.24, 6.01, 6.01, 6.44, 8.54, 10.94, 14.47, 15.75, 15.99, 13.96, 12.07, 10.28, 9.83, 10.52, 12.01, 12.72, 13.21, 13.83, 13.83, 13.35, 13.09, 13.21, 12.77, 12.43, 12.5, 12.52, 11.62, 11.62, 10.73, 11.62, 9.84, 9.84, 9.84, 10.13, 10.13, 10.43, 10.43, 10.43, 10.72, 10.72, 10.72, 10.99, 10.99, 11.28, 11.28, 11.28, 11.52, 11.52, 11.8, 11.8, 11.8, 11.8, 11.44, 11.72, 11.72, 11.72, 11.72, 11.72, 11.99, 11.99, 11.99, 11.62, 11.88, 11.88, 12.03, 12.03, 12.03, 12.28, 12.28, 11.75, 11.75, 11.36, 11.22, 10.83, 11.08, 12.15, 10.0, 9.35, 8.96, 9.2, 9.2, 9.01, 8.79, 8.91, 8.64, 8.77, 8.41, 7.58, 6.71, 5.08, 3.49, 2.36, 2.66, 3.68, 3.91, 3.6, 4.42, 5.31, 4.95, 5.69, 6.39, 6.44, 7.44, 8.54, 10.23, 13.39, 16.73, 17.7, 14.39, 11.6, 10.4, 11.6, 13.33, 15.04, 15.27, 14.61, 14.31, 13.96, 13.67, 13.33, 12.94, 12.52, 12.52, 12.07, 11.62, 11.18, 10.73, 10.73, 9.5, 9.5, 10.13, 10.13, 10.13, 10.13, 10.43, 10.43, 10.72, 10.4, 10.72, 10.99, 11.28, 11.28, 11.28, 11.28, 11.28, 11.52, 11.8, 11.8, 11.8, 11.44, 11.44, 11.72, 11.72, 11.72, 11.72, 11.72, 11.72, 11.99, 11.99, 11.99, 11.62, 11.88, 11.88, 12.03, 12.03, 12.03, 12.28, 12.28, 11.75, 11.75, 11.22, 11.22, 11.22, 11.6, 10.71, 9.71, 8.8, 8.68, 8.51, 8.51, 8.3, 8.3, 8.48, 8.21, 7.87, 7.51, 6.68, 5.47, 4.11, 2.84, 2.84, 3.68, 3.91, 3.6, 5.03, 5.03, 4.95, 6.11, 6.44, 6.82, 8.0, 7.42, 8.93, 11.6, 15.09, 19.31, 19.33, 16.74, 14.3, 14.88, 16.25, 16.92, 16.47, 15.84, 14.27, 13.67, 13.33, 12.94, 12.96, 12.52, 12.52, 12.04, 11.15, 10.73, 10.73, 10.73, 9.5, 9.5, 9.5, 9.82, 9.82, 10.13, 10.13, 10.12, 10.4, 10.4, 10.4, 10.4, 10.69, 10.94, 10.94, 11.28, 11.28, 11.8, 11.8, 11.8, 11.8, 11.44, 11.72, 11.72, 11.72, 11.72, 11.72, 11.72, 11.72, 11.72, 11.99, 11.99, 11.62, 11.62, 11.88, 12.03, 12.03, 12.03, 12.03, 12.03, 12.28, 11.75, 11.75, 11.22, 11.22, 11.6, 10.91, 10.42, 9.92, 9.21, 8.72, 8.3, 8.48, 8.0, 8.0, 8.17, 7.97, 7.6, 7.13, 5.81, 4.55, 3.79, 3.12, 3.68, 3.68, 4.14, 5.03, 6.01, 6.11, 6.44, 6.82, 6.44, 6.82, 7.82, 8.0, 9.49, 13.23, 17.5, 19.26, 18.1, 17.1, 17.48, 18.33, 18.41, 17.16, 16.19, 14.99, 14.44, 13.78, 13.39, 12.96, 12.52, 12.49, 11.52, 11.06, 10.7, 10.7, 10.7, 9.5, 9.5, 9.5, 9.5, 9.82, 9.82, 9.82, 10.12, 10.12, 10.4, 10.4, 10.69, 10.69, 10.69, 10.94, 10.94, 10.94, 11.58, 11.8, 11.8, 11.44, 11.44, 11.72, 11.72, 11.72, 11.72, 11.72, 11.72, 11.72, 11.72, 11.99, 11.99, 11.99, 11.99, 11.62, 11.88, 12.03, 12.03, 12.03, 12.03, 12.03, 12.14, 11.75, 11.36, 11.6, 11.08, 10.91, 10.71, 10.42, 10.18, 9.86, 9.39, 9.11, 8.64, 8.77, 8.42, 8.03, 8.05, 7.58, 6.04, 4.9, 4.37, 3.79, 2.84, 3.91, 4.75, 5.69, 5.77, 6.44, 6.44, 6.28, 6.18, 6.82, 7.42, 8.4, 8.95, 11.37, 14.68, 16.95, 17.08, 17.35, 18.4, 19.74, 19.19, 17.16, 15.96, 15.96, 15.81, 15.18, 13.86, 13.82, 11.4, 11.4, 11.36, 10.93, 10.45, 10.45, 10.45, 9.5, 9.5, 9.5, 9.5, 9.5, 9.82, 10.12, 10.12, 10.12, 10.12, 10.4, 10.69, 10.69, 10.69, 10.94, 10.94, 11.23, 11.23, 11.23, 11.23, 11.44, 11.44, 11.72, 11.72, 11.72, 11.72, 11.72, 11.72, 11.72, 11.72, 11.72, 11.99, 11.99, 11.99, 11.99, 12.16, 12.03, 12.03, 12.03, 12.03, 11.88, 11.75, 11.75, 11.36, 11.6, 11.08, 10.91, 10.71, 10.62, 10.42, 10.18, 9.86, 10.01, 9.68, 9.24, 8.92, 8.92, 8.49, 7.6, 6.6, 5.09, 4.8, 4.07, 3.49, 3.22, 4.75, 5.37, 5.06, 5.77, 5.77, 5.77, 6.11, 6.82, 7.42, 8.4, 9.24, 11.18, 13.29, 14.3, 15.03, 16.12, 18.68, 20.05, 18.26, 17.16, 16.25, 16.16, 16.48, 15.65, 14.71, 11.64, 10.68, 10.43, 10.43, 10.25, 9.75, 9.75, 9.75, 9.21, 9.21, 9.21, 9.21, 9.5, 9.5, 9.8, 9.8, 9.8, 9.8, 10.09, 10.36, 10.36, 10.69, 10.69, 10.94, 11.23, 11.23, 11.23, 11.23, 11.44, 11.44, 11.72, 11.72, 11.72, 11.72, 11.72, 11.72, 11.72, 11.72, 11.72, 11.99, 11.99, 12.16, 12.16, 12.16, 12.16, 12.03, 12.03, 11.88, 11.88, 11.75, 11.75, 11.36, 11.6, 11.08, 10.91, 10.71, 10.62, 10.42, 10.18, 10.18, 9.91, 10.04, 9.68, 9.77, 8.92, 8.47, 7.6, 6.68, 5.7, 4.9, 4.55, 4.11, 3.47, 4.75, 5.37, 4.75, 5.03, 5.37, 5.77, 6.11, 6.82, 7.42, 8.72, 9.24, 10.68, 12.3, 13.11, 12.86, 14.7, 18.23, 20.15, 18.79, 17.07, 16.68, 15.95, 15.2, 14.66, 11.87, 10.8, 10.23, 9.65, 9.27, 9.2, 9.08, 9.08, 9.08, 9.21, 9.21, 9.21, 9.5, 9.5, 9.5, 9.5, 9.8, 9.8, 9.8, 10.09, 10.09, 10.36, 10.36, 10.69, 10.69, 11.23, 11.23, 11.23, 11.23, 11.23, 11.52, 11.52, 11.72, 11.72, 11.72, 11.72, 11.72, 11.72, 11.72, 11.72, 11.72, 11.9, 12.16, 12.16, 12.16, 12.16, 11.99, 11.88, 11.88, 11.5, 11.75, 11.36, 11.36, 11.47, 11.08, 10.91, 11.12, 10.62, 10.42, 10.42, 10.18, 10.34, 10.34, 10.01, 9.68, 9.23, 8.42, 7.58, 6.71, 5.78, 5.09, 4.55, 4.07, 3.49, 4.75, 5.03, 5.03, 5.03, 5.77, 5.77, 6.82, 7.42, 7.82, 8.72, 8.95, 9.9, 10.96, 11.64, 11.88, 13.43, 16.06, 18.29, 18.45, 17.76, 16.24, 14.49, 12.96, 10.32, 9.45, 9.04, 9.0, 8.65, 8.68, 8.32, 8.3, 8.3, 8.3, 8.87, 8.87, 8.87, 9.19, 9.5, 9.5, 9.5, 9.5, 9.8, 9.8, 10.09, 10.09, 10.36, 10.36, 10.36, 10.65, 10.99, 11.23, 11.23, 11.23, 11.23, 11.23, 11.52, 11.52, 11.72, 11.72, 11.72, 11.72, 11.72, 11.72, 11.72, 11.72, 11.72, 12.27, 12.16, 12.16, 11.99, 11.62, 11.88, 11.5, 11.5, 11.36, 11.22, 11.22, 11.08, 11.08, 10.91, 10.91, 10.71, 10.42, 10.42, 10.18, 10.18, 10.18, 9.86, 9.57, 9.23, 8.42, 8.03, 7.15, 6.23, 5.24, 4.8, 4.37, 3.49, 4.29, 4.03, 4.26, 4.26, 4.95, 5.77, 6.18, 6.82, 7.42, 8.0, 8.63, 8.67, 9.65, 9.92, 10.9, 12.23, 13.43, 14.51, 16.74, 17.76, 16.92, 11.99, 9.39, 7.15, 6.07, 6.07, 5.89, 6.42, 7.18, 7.27, 7.68, 7.68, 7.68, 8.87, 8.59, 8.87, 8.87, 9.19, 9.19, 9.19, 9.5, 9.5, 9.8, 10.09, 10.09, 10.09, 10.36, 10.36, 10.65, 10.65, 10.88, 11.23, 11.23, 11.23, 11.23, 11.52, 11.52, 11.52, 11.52, 11.72, 11.72, 11.72, 11.72, 11.72, 11.72, 11.72, 12.27, 11.9, 12.16, 11.99, 11.62, 11.88, 11.5, 11.75, 11.22, 11.22, 11.08, 11.08, 11.08, 10.91, 10.91, 10.71, 10.62, 10.42, 10.42, 10.6, 10.18, 9.86, 9.57, 9.11, 8.33, 8.03, 7.15, 6.26, 5.7, 5.09, 4.27, 3.48, 3.47, 3.55, 3.27, 3.91, 4.83, 5.69, 6.11, 6.18, 7.35, 7.82, 7.41, 8.03, 8.68, 9.3, 10.63, 11.2, 11.6, 12.23, 14.64, 18.16, 16.4, 13.39, 9.74, 7.76, 7.28, 6.55, 4.93, 3.69, 4.2, 5.38, 5.94, 5.94, 5.94, 8.59, 8.87, 8.87, 8.87, 9.19, 9.19, 9.19, 9.19, 9.19, 9.8, 10.09, 10.09, 10.09, 10.36, 10.36, 10.65, 10.65, 10.65, 10.88, 11.23, 11.23, 11.23, 11.52, 11.52, 11.52, 11.52, 11.72, 11.72, 11.72, 11.72, 11.72, 11.72, 11.72, 11.72, 11.9, 11.99, 11.99, 11.62, 11.88, 11.5, 10.96, 11.22, 11.22, 11.08, 11.08, 10.68, 10.91, 10.91, 10.5, 10.71, 10.71, 10.83, 10.42, 10.18, 9.86, 9.39, 9.11, 8.33, 7.97, 7.13, 6.26, 5.78, 5.24, 4.4, 3.43, 2.58, 2.6, 1.73, 3.27, 4.26, 5.1, 5.89, 6.01, 5.24, 6.11, 6.32, 7.35, 8.03, 8.67, 9.6, 10.55, 10.68, 11.09, 14.21, 20.07, 18.31, 14.74, 11.99, 10.96, 10.96, 10.52, 7.12, 3.16, 1.84, 2.64, 3.11, 3.11, 3.11, 8.87, 8.87, 8.87, 8.87, 8.87, 9.19, 9.19, 9.48, 9.48, 9.48, 9.77, 10.09, 10.09, 10.09, 10.36, 10.65, 10.65, 10.65, 10.65, 10.88, 11.23, 11.23, 11.52, 11.52, 11.52, 11.52, 11.72, 11.72, 11.72, 11.72, 11.72, 11.72, 11.72, 11.72, 11.72, 11.99, 11.62, 11.62, 11.5, 11.34, 10.96, 11.22, 10.83, 11.08, 11.08, 10.68, 10.91, 10.8, 10.8, 10.71, 10.71, 10.71, 10.91, 10.18, 9.7, 9.39, 8.64, 8.33, 7.97, 7.13, 6.26, 5.81, 5.33, 4.6, 3.88, 2.53, 1.83, 0.82, 2.64, 4.42, 5.24, 5.59, 6.32, 5.89, 4.83, 5.89, 7.02, 8.06, 8.63, 8.95, 9.9, 10.43, 11.37, 19.16, 20.96, 18.72, 15.58, 13.39, 12.07, 12.07, 11.6, 8.05, 3.13, 0.0, 0.99, 1.74, 1.74, 1.74, 8.87, 8.87, 8.87, 8.87, 8.87, 8.87, 9.48, 9.48, 9.48, 9.48, 9.48, 9.77, 10.09, 10.09, 10.09, 10.65, 10.65, 10.65, 10.65, 10.88, 10.88, 10.88, 11.16, 11.52, 11.52, 11.52, 11.72, 11.72, 11.72, 11.72, 11.72, 11.72, 11.72, 11.72, 11.72, 11.99, 11.62, 11.62, 11.5, 11.34, 10.96, 11.22, 10.83, 11.08, 10.68, 10.68, 10.55, 10.8, 10.8, 10.91, 10.91, 11.12, 10.83, 10.42, 9.7, 9.39, 8.64, 8.21, 7.87, 7.13, 6.68, 6.26, 5.34, 4.77, 4.19, 3.07, 1.2, 0.51, 1.84, 3.72, 5.06, 5.37, 6.01, 5.89, 5.59, 5.59, 6.73, 7.41, 8.43, 8.4, 8.95, 9.6, 14.21, 18.35, 19.64, 17.39, 15.05, 12.52, 10.63, 10.1, 9.18, 5.86, 2.24, 1.34, 1.26, 1.26, 1.26, 1.26, 8.87, 8.87, 8.87, 8.87, 8.87, 8.87, 9.48, 9.48, 9.48, 9.48, 9.48, 9.48, 9.77, 10.09, 10.09, 10.36, 10.65, 10.65, 10.65, 10.65, 10.88, 10.88, 10.88, 11.23, 11.52, 11.52, 11.52, 11.72, 11.72, 11.72, 11.72, 11.72, 11.72, 11.72, 11.72, 11.62, 11.62, 11.62, 11.34, 11.34, 10.96, 11.22, 10.83, 10.83, 11.08, 10.68, 10.55, 10.8, 10.8, 10.91, 10.91, 10.91, 10.62, 10.42, 9.7, 9.21, 8.91, 8.64, 7.87, 7.07, 6.68, 6.26, 5.36, 4.89, 4.77, 4.11, 2.44, 1.16, 1.7, 3.63, 4.74, 5.06, 5.77, 5.69, 5.69, 6.11, 6.79, 7.07, 8.05, 8.4, 8.4, 9.36, 12.98, 16.19, 17.64, 16.54, 13.96, 10.7, 7.56, 5.46, 2.98, 0.99, 0.0, 1.34, 1.79, 1.34, 1.34, 1.34, 8.58, 8.58, 8.58, 8.58, 8.58, 8.58, 8.87, 9.17, 9.48, 9.48, 9.48, 9.48, 9.77, 9.77, 10.09, 10.09, 10.65, 10.65, 10.65, 10.65, 10.88, 10.88, 10.88, 11.23, 11.23, 11.52, 11.52, 11.72, 11.72, 11.72, 11.72, 11.72, 11.72, 11.72, 11.35, 11.62, 11.62, 11.07, 11.34, 10.96, 10.96, 11.22, 10.83, 10.83, 11.08, 10.68, 10.55, 10.55, 10.8, 10.8, 10.91, 10.91, 10.62, 10.0, 9.51, 9.21, 8.96, 8.64, 7.87, 7.4, 7.06, 6.23, 5.81, 4.92, 4.88, 4.77, 4.11, 2.79, 2.23, 3.35, 4.43, 4.29, 5.06, 5.77, 6.11, 6.18, 6.21, 7.2, 7.76, 8.0, 8.0, 9.9, 11.37, 14.42, 16.96, 17.25, 15.22, 11.89, 7.57, 3.95, 1.26, 0.89, 1.26, 1.9, 2.98, 2.98, 2.98, 2.98, 8.24, 8.24, 8.58, 8.58, 8.58, 8.58, 8.87, 8.87, 9.17, 9.48, 9.48, 9.48, 9.48, 9.77, 9.77, 10.09, 10.65, 10.65, 10.65, 10.65, 10.65, 10.88, 11.23, 11.23, 11.23, 11.23, 11.52, 11.52, 11.72, 11.72, 11.72, 11.72, 11.72, 11.72, 11.35, 11.44, 11.44, 11.07, 11.34, 10.96, 10.96, 11.22, 10.83, 10.83, 10.83, 11.08, 10.55, 10.55, 10.55, 10.8, 10.8, 10.62, 10.21, 9.92, 9.51, 9.21, 8.79, 8.48, 7.74, 7.4, 7.06, 6.68, 5.81, 5.36, 4.89, 4.77, 4.34, 3.35, 2.84, 3.48, 3.63, 3.47, 4.29, 5.37, 5.77, 5.77, 5.82, 6.8, 6.8, 7.35, 8.3, 9.75, 10.93, 13.21, 16.37, 18.17, 16.74, 14.47, 11.86, 9.28, 7.28, 6.94, 6.7, 7.07, 7.44, 7.06, 7.06, 7.06, 8.24, 8.24, 8.58, 8.58, 8.58, 8.87, 8.87, 8.87, 9.17, 9.48, 9.48, 9.48, 9.48, 9.77, 9.77, 9.77, 10.39, 10.65, 10.65, 10.65, 10.65, 10.88, 11.23, 11.23, 11.23, 11.23, 11.23, 11.52, 11.72, 11.72, 11.72, 11.72, 11.72, 11.35, 11.35, 11.44, 11.07, 11.07, 11.34, 10.96, 10.96, 10.96, 10.83, 10.83, 10.83, 10.83, 10.55, 10.55, 10.55, 10.8, 10.8, 10.62, 10.21, 9.92, 9.51, 9.63, 9.21, 8.48, 8.17, 7.69, 7.4, 6.61, 6.23, 5.81, 4.92, 4.88, 4.77, 4.11, 3.35, 3.48, 2.76, 3.63, 4.43, 4.74, 5.06, 5.77, 6.18, 6.21, 6.8, 7.76, 8.3, 9.54, 11.06, 12.94, 16.09, 17.86, 17.36, 15.83, 14.79, 13.4, 12.49, 12.22, 11.88, 11.75, 10.87, 10.87, 10.87, 10.87, 8.24, 8.24, 8.24, 8.58, 8.58, 8.87, 8.87, 8.87, 9.17, 9.17, 9.48, 9.48, 9.48, 9.48, 9.77, 9.77, 10.06, 10.65, 10.65, 10.65, 10.65, 11.23, 11.23, 11.23, 11.23, 11.23, 11.23, 11.52, 11.52, 11.72, 11.72, 11.72, 11.35, 11.35, 11.44, 11.07, 11.07, 11.07, 10.7, 10.96, 10.96, 10.96, 10.96, 10.83, 10.83, 10.83, 10.55, 10.55, 10.55, 10.8, 10.4, 10.21, 10.21, 9.92, 9.51, 9.63, 9.21, 8.48, 8.0, 7.74, 7.4, 6.94, 6.6, 5.78, 5.36, 4.92, 4.88, 4.34, 3.7, 2.79, 2.51, 3.79, 3.63, 4.43, 5.15, 5.82, 6.8, 6.8, 7.21, 7.35, 8.56, 9.7, 11.59, 13.41, 15.65, 17.43, 17.42, 16.3, 15.96, 15.47, 14.56, 13.21, 12.5, 12.56, 11.75, 11.75, 11.75, 11.75, 8.24, 8.24, 8.24, 8.58, 8.58, 8.87, 8.87, 8.87, 8.87, 9.17, 9.48, 9.48, 9.48, 9.48, 9.48, 9.77, 9.77, 10.65, 10.65, 10.65, 10.65, 10.88, 11.23, 11.23, 11.23, 11.23, 11.16, 11.16, 11.16, 11.16, 11.35, 11.35, 11.35, 11.16, 11.44, 11.07, 11.07, 10.7, 10.7, 10.96, 10.96, 10.96, 10.96, 11.22, 10.83, 10.68, 10.55, 10.55, 10.55, 10.4, 10.4, 10.21, 10.11, 9.92, 9.51, 9.01, 9.21, 8.72, 8.48, 8.0, 7.69, 6.94, 6.61, 6.23, 5.81, 4.92, 4.92, 4.44, 3.87, 3.2, 2.79, 3.48, 3.35, 5.36, 5.21, 6.16, 6.7, 7.21, 7.42, 7.89, 8.77, 9.8, 11.59, 13.41, 15.65, 16.97, 16.91, 16.25, 15.96, 15.96, 15.04, 13.64, 12.72, 12.22, 12.22, 11.99, 11.99, 11.99, 8.24, 8.24, 8.24, 8.24, 8.58, 8.87, 8.87, 8.87, 8.87, 9.17, 9.17, 9.17, 9.17, 9.48, 9.48, 9.77, 9.77, 10.39, 10.65, 10.65, 10.65, 10.65, 10.88, 10.88, 10.88, 10.88, 11.16, 11.16, 11.16, 11.16, 11.16, 11.16, 11.16, 11.44, 11.07, 11.07, 11.07, 10.7, 10.51, 10.79, 10.79, 10.96, 10.96, 10.83, 10.68, 10.68, 10.55, 10.55, 10.55, 10.4, 10.4, 10.21, 10.11, 9.92, 9.51, 9.42, 9.21, 8.72, 8.48, 8.0, 7.69, 7.26, 6.94, 6.16, 5.78, 5.36, 4.92, 4.47, 4.44, 3.82, 3.07, 2.53, 2.84, 6.0, 5.6, 6.51, 6.94, 7.42, 7.85, 8.01, 8.9, 9.8, 11.15, 13.39, 15.18, 16.47, 16.25, 15.78, 16.05, 15.84, 14.92, 13.99, 12.72, 12.22, 12.22, 12.14, 12.14, 12.14, 8.24, 8.24, 8.24, 8.24, 8.58, 8.87, 8.87, 8.87, 8.87, 9.17, 9.17, 9.17, 9.17, 9.48, 9.48, 9.77, 9.77, 10.39, 10.65, 10.65, 10.65, 10.65, 10.88, 10.88, 10.88, 10.88, 11.16, 11.16, 11.16, 11.16, 11.16, 11.16, 11.16, 11.44, 11.07, 11.07, 11.07, 10.7, 10.51, 10.79, 10.79, 10.96, 10.96, 10.83, 10.68, 10.68, 10.55, 10.55, 10.55, 10.4, 10.4, 10.21, 10.11, 9.92, 9.51, 9.42, 9.21, 8.72, 8.48, 8.0, 7.69, 7.26, 6.94, 6.16, 5.78, 5.36, 4.92, 4.47, 4.44, 3.82, 3.07, 2.53, 2.84, 6.0, 5.6, 6.51, 7.42, 7.42, 7.85, 8.01, 8.9, 9.8, 11.18, 12.94, 14.22, 15.47, 15.78, 15.61, 15.84, 15.84, 15.84, 14.92, 13.49, 12.8, 12.37, 12.37, 12.37, 12.37]}, {"header": {"dx": 0.06612293990616946, "dy": 0.0552356325346848, "nx": 98, "ny": 59, "la1": 35.046912555036876, "la2": 31.78801023549047, "lo1": -121.43107172385933, "lo2": -114.95102361305473, "refTime": "2026041701", "parameterCategory": 1, "parameterNumber": 3}, "data": [-11.96, -11.36, -11.03, -10.43, -9.82, -9.21, -8.87, -8.24, -8.24, -6.97, -6.34, -5.08, -4.2, -3.45, -1.65, -0.83, 0.0, 0.0, 0.0, 0.0, 0.0, 0.0, -1.72, -4.6, -6.2, -5.82, -5.82, -5.82, -5.75, -5.6, -5.51, -4.92, -4.47, -4.34, -4.0, -3.93, -4.54, -4.43, -4.43, -4.58, -4.56, -4.96, -5.69, -5.86, -5.55, -5.73, -5.62, -4.71, -3.32, -1.58, 0.0, 0.0, 0.0, 0.78, 1.61, 1.57, 1.62, 1.53, 1.53, 1.53, 1.62, 1.57, 1.57, 2.33, 2.41, 3.1, 3.2, 3.13, 2.37, 2.37, 1.54, 0.79, 0.81, 0.79, 0.79, 0.0, 0.0, -0.69, -1.63, -1.57, -2.45, -2.34, -3.16, -3.16, -4.13, -3.69, -3.95, -4.07, -3.36, -3.25, -2.47, 0.0, 4.43, 6.7, 6.7, 6.21, 5.46, 4.74, -11.63, -11.36, -11.03, -10.75, -10.13, -9.5, -8.87, -8.58, -7.96, -7.33, -6.63, -6.31, -4.83, -3.8, -2.46, -1.32, -0.83, -1.18, -1.32, -1.72, -1.32, -1.52, -2.8, -5.6, -5.75, -5.82, -5.15, -5.58, -5.58, -5.6, -5.51, -4.85, -4.47, -3.9, -4.0, -3.48, -4.54, -4.43, -4.74, -5.06, -5.53, -5.72, -6.71, -7.24, -6.9, -6.4, -4.55, -3.29, -1.62, -0.75, 0.0, 0.0, 0.0, 0.0, 0.74, 0.79, 0.81, 0.77, 0.77, 1.53, 1.57, 2.33, 2.33, 3.07, 3.17, 3.1, 3.13, 2.44, 1.56, 1.59, 1.54, 0.77, 0.79, 0.0, 0.0, 0.0, -0.77, -0.69, -1.63, -1.57, -2.45, -2.34, -3.16, -3.16, -4.13, -3.69, -3.95, -4.07, -3.36, -3.25, -2.47, 0.0, 4.43, 6.7, 6.7, 6.21, 5.46, 4.74, -11.36, -11.36, -10.75, -10.45, -9.84, -9.5, -9.21, -8.59, -7.96, -7.33, -6.98, -5.72, -5.64, -4.6, -2.99, -2.54, -1.65, -1.65, -1.73, -2.4, -2.47, -2.49, -2.8, -5.2, -6.58, -5.82, -5.15, -5.58, -5.82, -6.16, -6.02, -5.59, -5.29, -5.36, -4.57, -5.6, -4.89, -5.15, -5.77, -5.69, -5.94, -6.79, -6.97, -7.12, -6.43, -4.93, -3.29, -1.62, -0.78, 0.0, 0.0, 0.0, 0.0, 0.0, 0.0, 0.0, 0.79, 0.77, 0.77, 1.62, 2.33, 3.25, 4.0, 4.0, 3.28, 2.43, 1.59, 1.56, 1.59, 1.54, 0.79, 0.81, 0.0, 0.0, -0.76, -0.79, -1.53, -1.58, -2.16, -2.33, -2.37, -2.41, -3.25, -3.25, -3.53, -4.31, -4.6, -4.92, -4.92, -3.88, -0.89, 3.35, 6.16, 6.7, 5.82, 5.15, 4.29, 3.33, -11.36, -11.06, -10.45, -10.45, -9.84, -9.84, -9.5, -8.87, -8.24, -7.61, -6.98, -6.67, -6.42, -4.6, -4.0, -4.0, -3.15, -3.45, -3.27, -2.4, -2.51, -2.82, -2.66, -4.11, -5.81, -6.52, -5.82, -5.82, -6.16, -6.51, -6.94, -6.51, -6.2, -6.26, -6.07, -6.23, -6.13, -6.63, -7.07, -7.06, -7.27, -7.08, -6.57, -5.63, -4.8, -3.25, -1.62, -0.82, 0.0, 0.0, 0.0, 0.0, 0.0, 0.0, 0.0, 0.0, 0.79, 1.62, 2.33, 2.33, 3.25, 3.87, 4.0, 3.91, 2.43, 1.54, 1.59, 1.4, 2.09, 1.42, 1.53, 1.61, 0.8, 0.0, -0.71, -1.61, -1.61, -1.57, -1.57, -2.45, -2.1, -2.41, -2.39, -3.36, -3.88, -4.07, -5.06, -4.6, -3.27, -0.82, 2.53, 5.75, 6.28, 6.16, 5.58, 4.29, 3.33, 2.64, -11.36, -11.06, -10.45, -10.45, -9.84, -9.84, -9.21, -8.87, -8.87, -7.95, -7.6, -6.97, -6.42, -5.46, -4.83, -4.83, -4.6, -4.0, -4.34, -4.12, -4.71, -4.75, -3.68, -4.75, -5.75, -7.01, -6.52, -6.64, -7.01, -6.65, -7.11, -7.11, -7.11, -6.71, -7.5, -7.21, -6.52, -7.07, -8.05, -8.63, -7.68, -6.53, -5.64, -4.07, -3.21, -2.47, -1.54, -0.82, -0.79, 0.0, 0.0, 0.0, 0.0, 0.0, 0.8, 0.78, 1.61, 2.33, 3.07, 3.14, 4.1, 4.1, 3.07, 2.35, 1.63, 1.58, 1.62, 2.33, 3.17, 3.78, 3.87, 3.32, 2.88, 1.58, 0.0, -0.7, -1.54, -1.6, -1.58, -2.14, -2.15, -2.49, -2.39, -3.21, -3.32, -3.27, -2.64, -0.88, 0.0, 3.48, 5.2, 5.75, 5.75, 5.21, 4.43, 3.47, 2.47, 2.6, -11.36, -11.06, -10.45, -10.45, -10.13, -9.84, -9.21, -8.87, -8.59, -8.24, -7.32, -6.97, -6.7, -6.04, -5.46, -4.83, -4.83, -5.46, -6.04, -6.53, -6.18, -6.79, -7.6, -7.2, -7.63, -7.6, -7.21, -7.5, -7.06, -7.6, -7.15, -7.15, -7.11, -7.42, -6.28, -6.07, -5.75, -5.49, -7.07, -8.95, -8.4, -7.21, -5.1, -3.8, -2.57, -2.35, -1.6, -1.54, -0.82, 0.0, 0.0, 0.0, 0.8, 1.58, 2.37, 2.45, 2.31, 3.14, 3.14, 3.14, 3.23, 2.31, 1.57, 0.77, 0.81, 1.51, 2.45, 3.82, 4.65, 5.48, 5.6, 4.75, 4.75, 2.37, 0.77, 0.0, -0.79, -1.56, -1.62, -1.56, -2.47, -2.47, -2.44, -2.51, -1.7, 0.0, 0.87, 2.84, 3.93, 5.09, 5.51, 5.51, 5.2, 4.19, 2.6, 1.6, 1.7, 2.95, -11.36, -11.06, -10.45, -10.45, -10.13, -9.84, -9.5, -9.5, -8.59, -8.24, -7.61, -7.59, -7.18, -5.9, -5.69, -5.64, -5.9, -5.9, -6.42, -6.88, -6.88, -7.27, -7.44, -7.53, -8.49, -8.05, -7.94, -7.94, -7.94, -7.1, -7.6, -7.1, -7.12, -6.44, -6.4, -5.75, -5.51, -3.16, -4.24, -6.65, -7.21, -6.13, -4.74, -3.45, -1.18, -0.79, 0.0, 0.0, 0.0, 0.0, 1.14, 2.39, 2.41, 3.29, 3.19, 2.37, 2.45, 2.45, 2.45, 2.37, 1.6, 0.0, 0.0, 0.81, 1.6, 3.91, 4.87, 5.51, 5.72, 5.6, 4.75, 4.17, 2.99, 1.55, 0.0, 0.0, 0.0, -0.81, -0.85, -1.65, -1.58, -1.72, -0.98, 0.0, 1.79, 2.54, 3.6, 3.6, 4.15, 4.82, 4.41, 4.15, 3.58, 2.3, 1.55, 0.81, 2.68, 3.6, -11.36, -11.06, -10.45, -10.45, -10.13, -9.84, -9.5, -9.21, -8.87, -8.87, -7.93, -7.86, -7.48, -6.98, -6.97, -6.05, -5.95, -6.57, -6.05, -6.42, -5.52, -5.18, -5.41, -5.9, -5.69, -6.14, -6.14, -5.6, -6.58, -7.6, -8.05, -7.97, -7.63, -6.52, -4.81, -4.84, -3.58, 1.0, 2.21, -1.9, -2.68, -2.21, -1.6, 0.0, 0.0, 1.23, 1.73, 1.67, 2.44, 2.39, 3.32, 3.11, 3.16, 3.29, 2.44, 1.54, 1.6, 0.8, 0.0, 0.0, 0.0, -0.75, 0.0, 1.56, 4.92, 6.45, 7.12, 6.7, 5.51, 4.87, 4.17, 2.44, 0.8, 0.0, 0.0, 0.0, 0.0, 0.0, -0.8, -1.6, 0.0, 0.0, 1.9, 2.6, 2.97, 3.13, 3.13, 3.58, 3.58, 3.58, 3.04, 2.6, 1.98, 0.88, 0.88, 1.8, 3.6, 4.38, -11.36, -11.36, -10.45, -10.45, -10.13, -10.13, -9.5, -9.21, -9.21, -8.58, -8.85, -8.78, -9.76, -8.97, -8.22, -7.78, -8.07, -7.82, -7.18, -6.83, -5.98, -5.69, -5.2, -4.33, -4.01, -3.7, -3.16, 0.0, -2.68, -4.92, -5.36, -4.92, -3.6, 0.0, -0.88, -0.96, 0.0, 4.46, 4.47, 4.02, 3.6, 3.16, 2.98, 2.6, 2.32, 2.64, 3.6, 3.8, 4.34, 4.2, 4.6, 3.21, 3.25, 2.41, 1.63, 0.8, 0.0, 0.0, 0.0, -0.8, -1.64, -0.79, 1.58, 5.89, 8.31, 8.85, 8.76, 7.73, 6.57, 4.8, 2.34, 0.73, 0.0, -0.69, -1.44, -1.52, -0.82, -0.81, -1.67, -1.47, -1.58, 1.6, 2.41, 2.41, 2.53, 2.21, 2.23, 2.4, 2.0, 1.79, 1.79, 0.8, 0.0, 0.87, 1.98, 2.98, 3.95, 4.38, -11.36, -11.36, -10.75, -10.45, -10.13, -10.13, -9.5, -9.5, -9.21, -9.19, -9.17, -10.06, -9.13, -9.08, -9.59, -9.34, -9.69, -9.34, -9.66, -9.86, -9.86, -9.3, -9.08, -8.24, -7.24, -5.69, -2.26, 1.41, 2.53, 0.0, 0.0, 3.13, 4.02, 3.6, 2.73, 1.3, 4.09, 4.92, 5.2, 4.43, 4.43, 4.29, 3.9, 2.64, 2.64, 2.64, 3.2, 4.26, 4.96, 4.83, 4.2, 3.88, 3.21, 2.47, 2.47, 0.85, 0.0, 0.0, -0.78, -1.62, -1.6, 1.84, 6.87, 9.65, 10.29, 10.28, 10.28, 9.21, 6.44, 3.95, 0.8, 0.0, -1.38, -2.06, -2.93, -2.95, -3.25, -3.21, -2.9, -3.0, -2.68, -0.0, 0.81, 1.55, 1.66, 0.87, 0.99, -0.0, -0.0, -0.0, 0.0, 0.0, 0.0, 1.9, 2.98, 3.9, 3.95, 4.38, -11.36, -11.36, -11.03, -10.45, -10.45, -10.13, -10.13, -9.5, -9.21, -9.21, -9.5, -9.8, -9.8, -9.48, -9.36, -8.85, -8.53, -7.51, -7.51, -8.08, -9.66, -10.04, -10.04, -9.4, -8.75, -6.3, -3.4, 0.0, 1.8, 3.6, 3.2, 3.58, 3.58, 2.97, 1.98, 1.55, 4.11, 5.01, 4.84, 4.29, 4.16, 4.16, 3.2, 2.4, 2.49, 2.6, 4.43, 4.29, 4.16, 3.4, 4.5, 4.96, 5.89, 5.59, 5.24, 4.95, 4.03, 1.73, -0.84, -1.73, 1.83, 8.4, 11.09, 11.75, 12.23, 12.79, 12.86, 11.5, 7.9, 3.88, 0.79, -0.74, -2.87, -4.17, -5.1, -5.86, -5.18, -5.06, -4.0, -4.26, -3.16, -0.0, 0.79, -0.0, -0.0, -0.0, -0.76, -1.74, -1.9, -1.58, -1.26, 0.0, 1.34, 2.68, 3.13, 3.58, 4.02, 3.95, -11.36, -11.36, -11.03, -10.45, -10.45, -10.13, -10.13, -10.13, -9.5, -9.21, -9.5, -9.82, -10.12, -9.82, -8.87, -7.59, -6.08, -5.46, -5.45, -5.72, -5.7, -5.29, -4.44, -5.92, -4.66, -3.52, -1.2, 0.0, 1.84, 1.3, 1.8, 2.53, 3.39, 2.53, 1.8, 2.95, 3.35, 4.43, 4.29, 4.16, 4.42, 3.4, 3.2, 2.4, 2.8, 3.48, 3.79, 4.11, 4.11, 4.11, 5.21, 6.82, 7.82, 8.4, 8.3, 8.3, 8.4, 5.37, 0.0, 0.0, 8.94, 12.74, 12.98, 12.56, 13.49, 14.92, 15.1, 13.35, 10.28, 6.53, 3.61, 1.39, -2.1, -5.72, -7.73, -7.9, -7.27, -6.24, -5.13, -4.22, 0.0, 3.63, 3.79, -0.0, -0.76, -1.66, -1.8, -2.84, -3.22, -2.53, -1.74, -1.0, -0.0, 2.4, 3.13, 3.58, 3.58, 4.02, -11.36, -11.36, -11.03, -10.45, -10.45, -10.45, -9.84, -9.84, -10.13, -9.84, -9.84, -10.13, -9.82, -10.13, -9.5, -8.2, -6.9, -5.2, -4.54, -4.05, -4.02, -3.47, -2.9, -1.71, -0.56, 0.0, 0.56, 1.67, 2.23, 1.12, 0.8, 1.72, 2.53, 2.53, 2.76, 3.63, 3.72, 4.29, 4.29, 4.16, 3.2, 3.2, 2.51, 1.72, 2.4, 2.84, 3.72, 4.09, 4.09, 4.66, 5.09, 6.02, 6.51, 6.98, 7.74, 8.17, 8.22, 6.32, 0.0, 4.02, 11.62, 12.74, 12.04, 12.3, 13.49, 13.72, 13.64, 13.91, 12.04, 10.66, 9.26, 6.57, 0.85, -5.1, -8.43, -8.63, -8.05, -7.44, -5.72, -2.4, 2.98, 5.37, 4.22, 2.51, -0.0, -2.0, -2.68, -3.58, -3.83, -3.83, -3.22, -0.76, 0.99, 2.21, 2.97, 3.13, 3.58, 3.58, -11.36, -11.36, -11.03, -10.45, -10.76, -10.76, -10.47, -10.13, -9.84, -9.84, -9.84, -9.84, -9.84, -9.84, -10.13, -9.49, -8.18, -6.4, -5.73, -4.77, -4.1, -4.07, -2.94, -2.35, -1.14, 0.0, 0.57, 1.14, 1.72, 1.75, 0.57, 0.81, 1.25, 1.6, 2.47, 2.8, 2.88, 3.72, 3.33, 3.55, 2.51, 1.63, 1.1, 1.23, 2.98, 4.09, 3.6, 3.72, 4.09, 4.77, 4.77, 4.66, 4.77, 5.2, 5.2, 4.85, 5.09, 2.66, 0.0, 5.51, 11.18, 11.84, 11.62, 11.56, 11.18, 10.68, 10.32, 10.32, 10.79, 9.67, 9.56, 6.95, 2.98, -3.39, -6.71, -7.6, -6.94, -5.2, -1.08, 2.8, 5.59, 4.71, 2.99, 2.06, 0.81, 0.0, -3.35, -4.22, -4.4, -4.4, -3.22, -0.0, 1.8, 2.84, 3.47, 3.58, 3.58, 3.9, -11.36, -11.36, -11.36, -10.76, -10.76, -10.76, -10.47, -10.47, -10.13, -9.84, -9.84, -10.13, -9.5, -9.5, -9.5, -9.49, -8.83, -8.16, -7.24, -5.85, -5.18, -4.66, -4.13, -2.89, -1.76, -0.59, 0.0, 0.59, 1.14, 1.72, 1.69, 0.58, 0.0, 1.14, 1.25, 2.66, 3.68, 3.33, 3.6, 2.35, 0.89, 0.0, 0.0, 2.6, 4.11, 4.8, 5.2, 4.77, 4.46, 4.09, 4.09, 3.72, 4.24, 3.6, 3.2, 2.21, 0.0, -0.78, 0.74, 6.64, 9.54, 9.21, 8.54, 8.15, 8.63, 8.17, 8.17, 7.63, 6.9, 6.01, 5.76, 4.19, 1.08, -0.89, -2.76, -3.35, -1.79, 2.0, 4.95, 6.04, 5.64, 4.2, 1.58, 0.71, 0.0, 0.0, -0.99, -3.58, -4.47, -4.47, -2.21, 0.87, 2.3, 4.22, 4.82, 4.85, 4.57, 4.57, -11.36, -11.36, -11.06, -10.76, -10.76, -10.47, -10.47, -10.47, -10.13, -9.84, -9.84, -9.84, -9.49, -9.49, -9.49, -9.49, -9.49, -8.81, -8.37, -7.2, -6.48, -5.3, -4.22, -2.98, -2.31, -1.17, 0.0, 0.0, 0.58, 1.13, 1.7, 1.17, 0.0, 0.0, 0.0, 1.63, 2.51, 3.2, 2.4, 1.25, 0.0, 0.0, 1.23, 4.43, 5.01, 5.6, 5.6, 5.2, 5.2, 4.84, 4.46, 3.48, 2.98, 2.48, 0.0, -1.4, -1.41, -1.32, 1.2, 6.69, 7.02, 6.01, 4.96, 5.03, 5.36, 5.81, 5.51, 5.2, 4.74, 3.91, 2.64, 0.0, -0.88, -0.0, 0.99, 3.9, 6.44, 7.97, 7.82, 7.36, 5.52, 3.32, 0.84, 0.0, -0.78, -0.89, 0.0, -1.83, -3.48, -2.84, -1.79, 3.07, 5.86, 6.66, 6.21, 6.07, 5.43, 5.43, -11.36, -11.36, -11.06, -11.06, -10.76, -10.77, -10.47, -10.47, -10.13, -10.13, -9.84, -9.84, -9.49, -9.49, -9.49, -9.49, -9.21, -9.48, -9.07, -7.66, -6.96, -5.98, -4.6, -3.52, -2.31, -1.16, -0.6, 0.0, 0.0, 0.0, 0.58, 0.0, 0.0, -1.09, -0.76, 0.0, 0.83, 1.18, 1.32, 0.0, 0.0, 0.81, 2.6, 3.79, 5.01, 5.6, 6.23, 5.36, 5.01, 4.11, 4.11, 2.6, 2.8, 2.32, 1.3, 0.0, 0.0, 1.18, 3.35, 5.72, 5.72, 4.66, 3.35, 3.4, 4.11, 3.6, 4.24, 3.72, 2.6, 2.49, 0.0, -2.98, -1.13, 1.2, 4.6, 7.06, 8.6, 9.48, 8.66, 7.24, 5.76, 3.49, 1.65, 0.0, -0.83, -0.89, -0.78, -1.72, -1.84, -1.13, 0.0, 3.83, 7.92, 8.49, 7.89, 6.79, 6.25, 6.25, -11.36, -11.06, -11.06, -11.06, -10.77, -10.77, -10.47, -10.47, -10.13, -10.13, -9.84, -9.84, -9.49, -9.49, -9.49, -8.83, -9.48, -9.48, -8.81, -7.48, -7.0, -6.48, -5.3, -3.55, -2.38, -1.19, -1.78, -1.15, -1.19, -1.19, -1.16, -1.17, -1.19, -1.72, -1.65, -0.8, -0.89, 0.0, 0.0, 0.0, 0.0, 1.3, 2.73, 3.79, 5.01, 5.36, 5.36, 4.74, 4.02, 4.02, 2.32, 2.49, 3.45, 4.02, 4.02, 3.76, 3.22, 3.68, 3.8, 4.44, 3.7, 3.7, 2.33, 2.4, 2.6, 2.98, 2.97, 2.84, 1.41, 0.0, 0.0, -0.78, 0.82, 3.16, 5.3, 6.45, 7.12, 7.25, 6.9, 5.4, 4.13, 2.47, 1.67, 0.0, 0.0, 0.0, 0.82, 0.0, 0.0, 0.0, 1.83, 6.51, 8.94, 9.36, 8.63, 7.76, 6.7, 6.7, -11.36, -11.06, -11.06, -11.38, -10.77, -10.77, -10.47, -10.47, -10.13, -10.13, -9.84, -9.84, -9.49, -9.49, -9.49, -9.54, -9.12, -8.83, -8.2, -7.06, -7.0, -7.16, -6.52, -5.67, -3.95, -3.52, -2.9, -3.95, -4.07, -3.5, -3.47, -2.92, -2.3, -1.72, -1.71, -1.78, -2.23, -2.23, -2.44, -1.14, 0.0, 0.83, 1.32, 2.32, 4.02, 4.74, 4.74, 4.02, 2.49, 2.66, 2.66, 4.02, 4.74, 5.36, 6.13, 5.93, 4.75, 5.03, 4.96, 4.66, 3.7, 2.46, 2.33, 1.72, 2.53, 3.93, 3.93, 2.53, 1.6, 1.14, 1.16, 2.43, 3.89, 3.92, 4.04, 3.1, 2.39, 1.55, 1.61, 1.65, 0.79, 0.81, 0.8, 0.71, 0.83, 1.84, 4.16, 5.21, 2.67, 2.99, 4.96, 8.05, 9.54, 9.58, 8.95, 7.44, 6.44, 6.44, -11.36, -11.06, -11.38, -11.38, -10.77, -10.47, -10.47, -10.47, -10.13, -10.13, -9.84, -9.49, -9.49, -9.49, -9.48, -9.09, -8.83, -8.86, -8.72, -8.72, -8.62, -8.11, -8.79, -8.74, -7.93, -6.28, -5.73, -5.14, -5.11, -4.62, -3.96, -2.93, -2.28, -1.76, -1.16, -1.78, -2.21, -2.86, -2.83, -1.73, -0.55, 0.0, 0.56, 1.07, 2.14, 3.68, 2.49, 2.49, 2.66, 2.66, 4.29, 5.06, 6.13, 6.13, 5.21, 5.82, 6.32, 5.3, 4.96, 3.3, 2.46, 1.2, 1.18, 2.6, 4.19, 5.43, 5.82, 5.06, 3.79, 3.32, 3.11, 4.01, 3.95, 2.46, 0.79, -0.79, -3.2, -3.91, -3.14, -1.54, 0.0, 0.0, 0.0, 0.8, 1.65, 3.09, 4.46, 5.86, 5.13, 5.04, 6.64, 8.63, 9.08, 8.95, 7.92, 7.41, 6.73, 6.73, -11.38, -11.38, -11.38, -11.38, -10.76, -10.47, -10.47, -10.47, -10.13, -10.13, -9.84, -9.49, -9.49, -9.21, -9.48, -9.47, -9.09, -8.86, -8.87, -9.66, -9.54, -8.83, -9.21, -8.83, -8.4, -7.7, -6.36, -5.28, -4.81, -3.99, -3.37, -2.87, -2.25, -1.73, -1.12, -1.71, -2.23, -2.89, -2.83, -2.93, -2.23, -1.12, -0.57, 0.0, 1.09, 1.25, 1.32, 1.4, 1.4, 4.02, 5.36, 6.13, 6.13, 6.13, 6.13, 5.82, 6.39, 5.94, 4.66, 2.33, 1.14, 1.18, 1.41, 4.65, 6.28, 7.63, 7.35, 7.42, 6.73, 6.53, 7.24, 7.11, 5.56, 1.59, -1.54, -5.46, -8.59, -9.66, -7.93, -4.93, -2.34, -0.79, 0.0, 0.73, 1.67, 3.27, 4.96, 5.59, 5.86, 5.59, 6.73, 8.63, 9.03, 8.3, 7.33, 6.64, 6.32, 6.32, -11.38, -11.38, -11.38, -11.06, -10.76, -10.47, -10.47, -10.13, -10.13, -9.84, -9.84, -9.49, -9.49, -9.48, -9.47, -9.47, -9.48, -9.49, -9.49, -9.47, -8.81, -8.2, -8.22, -8.58, -8.4, -7.66, -6.48, -5.34, -4.55, -3.44, -2.96, -2.33, -1.71, -1.65, -1.2, -1.71, -1.73, -2.92, -2.89, -2.86, -2.8, -2.25, -1.71, -1.11, 0.0, 0.0, 0.0, 0.0, 1.32, 4.43, 6.23, 6.13, 5.75, 6.23, 6.64, 6.52, 6.79, 7.41, 6.01, 3.91, 2.6, 2.76, 4.6, 6.51, 7.71, 8.14, 7.89, 7.42, 7.67, 8.37, 9.86, 10.36, 8.61, 3.25, -5.59, -7.9, -9.8, -10.75, -10.75, -8.66, -5.72, -2.31, 0.0, 0.0, 1.67, 4.12, 5.49, 5.49, 5.86, 5.94, 7.33, 8.32, 7.96, 7.64, 6.58, 6.28, 6.64, 6.64, -11.38, -11.38, -11.38, -11.06, -10.76, -10.76, -10.47, -10.13, -10.13, -9.84, -9.84, -9.49, -9.48, -10.13, -9.47, -9.47, -9.2, -9.48, -9.75, -9.73, -8.79, -7.76, -6.9, -7.57, -7.93, -7.7, -7.2, -5.98, -5.34, -4.17, -3.41, -2.93, -2.21, -2.25, -1.65, -1.78, -1.81, -2.23, -2.26, -2.4, -2.37, -2.33, -2.33, -1.69, -1.1, -0.58, 0.0, 0.0, 2.4, 5.2, 6.23, 5.75, 5.36, 6.23, 6.23, 6.52, 7.2, 8.0, 7.44, 5.06, 4.54, 5.2, 6.28, 7.63, 8.14, 8.3, 8.3, 7.42, 7.42, 7.03, 7.6, 6.63, 3.23, 2.33, 0.0, -2.41, -4.36, -6.64, -8.22, -9.17, -7.8, -5.0, -1.54, 0.0, 2.57, 4.96, 5.59, 5.59, 6.95, 8.31, 7.96, 8.59, 7.9, 6.92, 6.58, 5.86, 6.64, 6.64, -11.67, -11.67, -11.38, -11.38, -10.76, -10.76, -10.47, -10.13, -9.84, -9.84, -9.84, -10.13, -9.84, -9.84, -9.84, -9.47, -9.2, -9.2, -9.47, -9.47, -8.79, -8.16, -7.76, -6.88, -7.53, -7.76, -7.03, -6.52, -6.02, -5.34, -4.7, -4.07, -3.44, -2.96, -2.33, -2.25, -2.17, -1.67, -1.69, -1.71, -1.73, -1.73, -2.26, -2.29, -2.32, -1.7, -1.18, 0.0, 2.98, 5.2, 6.23, 5.6, 5.6, 5.6, 6.23, 6.64, 6.51, 7.42, 7.6, 7.6, 6.21, 6.16, 6.7, 7.63, 8.56, 8.3, 8.0, 8.54, 6.79, 5.77, 4.29, 0.0, 2.37, 5.56, 6.37, 5.4, 3.45, 0.0, -2.28, -5.78, -6.36, -5.86, -3.69, -0.72, 2.44, 4.26, 4.83, 6.01, 7.35, 9.66, 9.27, 8.53, 7.8, 6.71, 5.78, 5.86, 6.28, 6.28, -11.38, -11.38, -11.38, -11.06, -11.06, -10.76, -10.76, -9.84, -9.84, -9.84, -9.84, -9.84, -10.13, -9.84, -9.84, -9.47, -9.2, -9.47, -9.47, -9.47, -9.07, -8.4, -8.16, -7.73, -7.06, -7.1, -7.06, -7.06, -6.56, -5.88, -5.38, -4.55, -4.07, -3.44, -3.47, -2.84, -2.23, -2.25, -2.28, -1.67, -1.71, -1.63, -2.14, -2.8, -2.82, -2.36, -1.16, 0.0, 1.11, 2.53, 3.6, 5.64, 5.64, 6.07, 6.14, 6.58, 7.06, 6.26, 7.15, 7.2, 7.07, 5.82, 6.7, 7.63, 8.14, 8.3, 8.0, 7.81, 7.06, 4.42, 1.65, 0.0, 2.31, 5.51, 7.11, 7.22, 7.03, 4.81, 1.04, -2.39, -4.31, -5.09, -3.69, -0.74, 2.4, 4.16, 4.95, 6.73, 8.38, 9.21, 10.18, 9.8, 8.38, 6.87, 6.17, 5.86, 6.28, 6.28, -11.38, -11.38, -11.38, -11.06, -11.06, -10.76, -10.76, -10.13, -9.84, -9.84, -10.13, -9.84, -10.13, -9.84, -9.47, -9.47, -9.47, -9.47, -9.47, -9.07, -8.81, -8.81, -8.4, -8.14, -7.48, -7.28, -7.06, -6.4, -6.4, -5.92, -5.92, -5.25, -4.58, -4.62, -3.96, -3.47, -3.5, -2.84, -2.87, -2.25, -2.17, -1.69, -2.26, -2.8, -2.82, -2.18, -1.7, -1.07, 0.0, 0.51, 2.91, 3.58, 5.81, 6.26, 6.58, 6.58, 6.71, 6.71, 7.15, 6.23, 6.28, 7.44, 6.8, 7.63, 8.14, 7.89, 7.44, 7.06, 5.89, 4.12, 2.31, 1.18, 1.55, 3.9, 6.47, 8.0, 7.8, 4.88, 1.51, -1.56, -4.2, -5.04, -3.6, 0.0, 3.22, 4.29, 6.01, 7.35, 8.65, 8.9, 8.76, 10.07, 8.51, 7.19, 6.36, 6.42, 5.78, 5.78, -11.38, -11.38, -11.38, -11.06, -10.76, -10.76, -10.45, -10.13, -9.84, -9.84, -10.13, -10.13, -10.13, -10.13, -9.75, -9.48, -9.47, -9.47, -8.81, -8.81, -8.81, -8.81, -8.81, -8.4, -8.14, -7.7, -7.03, -6.6, -6.4, -5.96, -5.77, -5.32, -5.32, -5.32, -4.65, -4.65, -4.65, -3.99, -4.17, -3.5, -3.37, -3.39, -2.93, -2.75, -2.32, -2.36, -1.7, -1.55, -1.19, 0.0, 1.9, 3.13, 3.53, 4.02, 5.36, 5.36, 6.26, 6.26, 5.81, 5.51, 6.13, 6.44, 8.22, 8.14, 8.63, 7.03, 6.79, 5.89, 4.96, 4.0, 1.68, 0.79, 0.0, 1.57, 3.95, 5.67, 4.85, 2.81, 0.0, -1.58, -3.33, -3.72, -0.88, 1.66, 3.11, 4.56, 6.53, 7.9, 8.53, 8.12, 7.36, 7.19, 8.06, 7.93, 6.53, 6.11, 5.7, 5.7, -11.38, -11.38, -11.06, -11.06, -10.76, -10.76, -10.45, -10.13, -10.13, -10.13, -9.84, -10.13, -10.13, -10.13, -9.48, -9.48, -9.47, -9.47, -8.81, -8.81, -8.81, -8.81, -8.81, -8.81, -8.4, -8.14, -7.48, -7.03, -6.36, -6.4, -5.96, -5.77, -5.32, -5.14, -5.14, -4.86, -4.48, -4.48, -4.68, -4.17, -4.02, -4.05, -3.39, -3.45, -2.83, -2.37, -2.26, -1.7, -1.7, -1.08, 0.65, 2.24, 2.63, 3.09, 3.53, 4.92, 5.36, 5.81, 5.36, 5.75, 6.02, 6.7, 7.35, 8.3, 7.42, 8.0, 6.32, 5.1, 3.45, 2.35, 1.62, 0.0, 0.0, 0.0, 0.0, 0.0, 0.0, 0.0, 0.0, 0.0, -0.82, 0.0, 1.11, 3.6, 3.7, 4.96, 6.44, 7.73, 8.01, 7.12, 6.33, 5.6, 7.23, 6.69, 6.36, 5.77, 5.09, 5.09, -11.06, -11.06, -11.06, -11.06, -10.76, -10.45, -10.45, -10.45, -10.13, -10.13, -10.13, -10.13, -10.13, -9.48, -9.48, -9.48, -9.47, -9.47, -8.81, -8.81, -8.81, -8.81, -8.81, -8.4, -8.16, -8.16, -7.73, -7.73, -7.06, -6.6, -6.4, -5.96, -5.28, -5.32, -5.14, -5.17, -4.68, -4.68, -4.68, -4.68, -4.51, -4.02, -4.05, -4.01, -3.36, -2.37, -2.89, -3.42, -3.45, -2.4, 0.0, 1.49, 2.24, 2.6, 2.91, 3.09, 5.36, 5.36, 5.36, 5.81, 6.2, 6.51, 7.12, 7.6, 7.44, 7.35, 7.68, 5.49, 3.6, 1.75, 1.6, 2.41, 1.64, 0.0, -2.39, -3.95, -3.13, -0.78, 0.78, 1.62, 1.55, 1.67, 2.17, 2.8, 5.1, 5.77, 6.29, 6.87, 6.21, 5.6, 5.6, 4.65, 4.31, 5.63, 5.71, 5.1, 4.8, 4.8, -11.36, -11.36, -11.36, -11.06, -10.76, -10.45, -10.45, -10.45, -10.13, -10.13, -10.13, -10.13, -9.84, -9.48, -9.48, -9.48, -9.47, -9.2, -8.81, -8.81, -8.81, -8.81, -8.81, -8.16, -8.43, -8.18, -7.76, -7.5, -7.06, -7.06, -6.4, -5.92, -5.96, -5.28, -5.32, -5.14, -5.36, -4.68, -4.68, -4.68, -4.68, -4.51, -4.72, -4.08, -3.49, -3.36, -3.21, -3.42, -4.45, -4.71, -2.84, 0.0, 1.79, 1.79, 2.17, 2.4, 3.07, 3.58, 5.36, 5.36, 5.75, 6.02, 6.7, 6.44, 7.15, 7.41, 8.42, 8.49, 6.39, 4.16, 3.4, 4.92, 5.67, 3.95, 0.0, -3.2, -3.2, -1.63, 0.0, 2.4, 2.36, 2.3, 2.24, 3.5, 4.57, 6.36, 6.44, 5.89, 5.02, 4.31, 3.53, 3.14, 2.81, 4.87, 4.31, 4.24, 4.4, 4.4, -11.36, -11.36, -11.36, -11.36, -10.75, -10.45, -10.45, -10.45, -10.76, -10.47, -10.13, -10.13, -9.84, -9.48, -9.48, -9.75, -9.47, -9.2, -8.81, -8.81, -8.81, -8.81, -8.56, -8.43, -8.43, -8.18, -7.76, -7.53, -7.1, -7.06, -6.6, -6.4, -6.2, -5.96, -5.77, -5.32, -5.14, -5.14, -4.68, -4.68, -4.68, -4.68, -4.72, -4.54, -4.6, -4.8, -4.07, -2.75, -3.84, -4.37, -3.43, -0.71, 0.0, 1.2, 1.34, 1.7, 2.6, 3.09, 4.02, 5.81, 5.75, 6.02, 5.82, 5.77, 6.11, 6.44, 7.2, 8.54, 8.37, 6.01, 5.24, 6.53, 7.01, 7.27, 4.7, 0.0, -3.17, -3.14, -1.57, 0.0, 0.73, 2.16, 2.85, 3.96, 4.51, 5.2, 5.23, 5.52, 4.31, 3.66, 2.87, 2.06, 2.13, 2.13, 3.66, 3.6, 3.53, 3.53, -11.36, -11.36, -11.36, -11.03, -10.75, -10.75, -10.45, -10.45, -10.76, -10.47, -10.13, -10.13, -10.13, -9.48, -9.48, -9.48, -9.48, -9.48, -9.48, -9.09, -8.81, -8.83, -8.83, -8.43, -8.18, -8.18, -7.53, -7.8, -8.06, -6.68, -7.1, -6.85, -6.4, -6.43, -5.96, -5.77, -5.32, -5.32, -5.14, -5.14, -4.68, -4.68, -4.51, -4.72, -5.23, -4.76, -3.91, -2.83, -2.92, -3.45, -3.49, -1.11, 0.0, 0.0, 0.0, 1.2, 2.24, 3.07, 4.02, 4.92, 6.2, 6.02, 5.82, 5.43, 5.77, 6.18, 5.82, 5.93, 6.01, 5.72, 5.76, 5.76, 5.92, 5.62, 6.46, 3.22, 0.0, -1.56, -0.76, 0.0, 1.42, 2.91, 4.29, 4.01, 4.07, 4.46, 3.99, 3.37, 3.25, 2.06, 1.46, 0.71, 0.71, 1.46, 2.18, 2.14, 2.19, 2.19, -11.03, -11.03, -11.03, -11.03, -10.75, -10.75, -10.45, -10.76, -10.76, -10.47, -10.13, -10.13, -10.13, -10.13, -9.48, -9.48, -9.48, -9.48, -9.48, -9.09, -9.09, -8.83, -8.43, -8.18, -8.18, -8.18, -7.53, -7.8, -7.55, -7.23, -6.9, -7.13, -6.88, -6.43, -6.43, -6.43, -5.77, -6.0, -5.32, -5.14, -5.14, -4.65, -4.68, -4.72, -4.54, -4.54, -4.05, -3.42, -2.39, -2.97, -2.33, -1.09, 0.0, 0.0, 0.0, 0.0, 0.57, 2.68, 3.58, 4.92, 5.33, 6.16, 6.52, 6.21, 6.44, 6.18, 5.82, 5.06, 5.03, 5.21, 5.64, 4.83, 3.36, 2.39, 3.16, 3.99, 3.96, 3.07, 2.18, 1.45, 2.11, 2.11, 2.94, 2.87, 2.94, 2.9, 2.28, 1.74, 1.57, 0.78, 0.0, 0.0, 0.0, 0.0, 0.71, 1.6, 1.42, 1.42, -11.03, -11.03, -11.03, -11.03, -10.75, -10.75, -10.45, -10.76, -10.76, -10.47, -10.13, -10.13, -10.13, -10.13, -9.48, -9.48, -9.48, -9.48, -9.48, -9.09, -8.83, -8.83, -8.18, -8.18, -8.18, -8.18, -7.53, -7.53, -7.76, -7.1, -6.9, -6.46, -6.9, -7.13, -6.88, -6.43, -6.43, -5.77, -6.0, -5.32, -5.32, -5.14, -4.65, -4.68, -4.72, -4.54, -4.54, -3.89, -3.39, -2.87, -2.35, -1.73, -0.57, -0.56, 0.0, 0.0, 0.0, 1.19, 3.53, 4.47, 7.6, 7.21, 6.8, 7.2, 6.4, 6.18, 5.77, 5.77, 5.03, 6.01, 6.53, 6.24, 3.39, 0.78, 0.81, 3.18, 6.5, 7.28, 5.73, 3.61, 1.41, 0.71, 0.71, 0.7, 1.44, 1.16, 0.56, 0.0, 0.0, 0.0, -0.75, -0.8, -0.72, -0.68, 0.0, 0.68, 0.7, 0.7, -11.03, -11.03, -11.03, -11.03, -10.75, -10.75, -10.45, -10.45, -10.76, -10.76, -9.84, -9.84, -9.84, -10.13, -10.13, -9.48, -9.21, -9.21, -9.48, -8.83, -8.83, -8.83, -8.57, -8.18, -8.18, -7.93, -7.53, -7.53, -7.53, -7.53, -6.88, -6.46, -6.46, -6.46, -6.9, -7.13, -6.43, -6.43, -6.22, -5.77, -5.77, -5.32, -5.14, -4.68, -4.51, -4.72, -4.54, -4.54, -4.05, -3.39, -2.87, -2.25, -1.75, -1.16, -1.1, -0.57, 0.0, 0.53, 1.7, 5.26, 6.26, 7.97, 7.21, 7.2, 7.07, 6.63, 5.77, 5.69, 5.69, 5.89, 6.24, 6.71, 4.65, 2.41, 1.56, 3.18, 5.69, 6.31, 6.31, 3.99, 2.16, 0.0, 0.0, 0.0, 0.73, 0.0, 0.0, 0.0, -0.78, -1.5, -1.54, -1.48, -1.64, -1.44, -0.72, -0.68, 0.0, 0.0, -11.33, -11.33, -11.33, -11.03, -10.75, -10.75, -10.75, -10.45, -10.45, -10.45, -10.13, -9.84, -9.84, -9.84, -9.84, -9.49, -9.21, -9.21, -9.21, -8.83, -8.83, -8.83, -8.57, -8.46, -8.46, -7.93, -7.93, -7.53, -7.53, -7.53, -7.1, -6.88, -6.43, -6.46, -6.46, -6.46, -6.46, -6.46, -6.46, -6.22, -5.77, -5.32, -5.32, -4.65, -4.68, -4.51, -4.51, -4.72, -4.05, -4.05, -3.57, -2.77, -2.28, -1.78, -1.61, -1.2, 0.0, 0.57, 1.12, 4.9, 6.23, 6.16, 7.21, 6.4, 6.44, 6.32, 5.37, 5.77, 6.11, 5.69, 6.3, 6.14, 6.0, 4.66, 3.22, 1.63, 3.13, 3.93, 4.06, 2.85, 2.18, 1.46, 1.42, 0.72, 0.69, 0.0, 0.0, 0.0, 0.0, 0.0, 0.0, -0.76, 0.0, 0.0, 0.0, 0.0, 0.0, 0.0, -11.33, -11.33, -11.33, -11.33, -10.75, -10.75, -10.75, -10.45, -10.45, -10.13, -10.13, -10.13, -9.84, -9.84, -9.49, -9.49, -9.49, -9.21, -8.83, -8.83, -8.83, -8.85, -8.85, -8.46, -8.46, -8.2, -8.2, -7.8, -7.8, -7.8, -7.53, -7.1, -6.88, -6.43, -6.46, -6.46, -6.46, -6.46, -6.46, -6.46, -6.46, -5.8, -5.14, -4.81, -4.05, -4.51, -4.51, -4.51, -4.72, -4.05, -3.39, -3.42, -2.8, -2.3, -1.69, -1.09, 0.0, 0.0, 2.36, 4.55, 6.16, 6.6, 7.21, 6.4, 6.44, 6.01, 6.18, 6.44, 6.11, 5.69, 6.01, 6.53, 6.94, 6.74, 4.85, 2.35, 0.76, 0.8, 0.0, 0.0, 1.45, 2.17, 2.12, 1.43, 1.41, 1.41, 0.71, 0.74, 1.48, 1.48, 1.48, 1.48, 1.54, 0.77, 0.77, 0.73, 0.68, 0.0, -10.99, -10.99, -10.99, -10.99, -10.75, -10.75, -10.75, -10.75, -10.45, -10.13, -10.13, -10.13, -10.13, -9.84, -9.49, -9.49, -9.49, -9.49, -8.83, -9.12, -8.85, -8.85, -8.85, -8.46, -8.46, -8.2, -8.2, -8.2, -7.8, -7.8, -7.55, -7.29, -7.1, -6.88, -6.43, -6.43, -6.46, -6.46, -6.46, -6.46, -6.46, -6.25, -5.83, -5.48, -4.05, -4.51, -5.17, -5.2, -4.72, -4.54, -3.89, -3.42, -2.93, -2.28, -1.75, -1.14, 0.0, 0.0, 1.23, 3.79, 5.99, 6.04, 7.21, 6.21, 6.18, 7.07, 7.44, 6.44, 6.44, 6.11, 6.01, 6.01, 5.92, 6.28, 8.07, 6.31, 2.41, -0.79, -1.44, -0.72, 0.0, 1.4, 2.13, 2.87, 2.76, 2.87, 2.81, 3.04, 3.04, 3.04, 3.04, 2.31, 1.5, 1.6, 0.8, 0.73, 0.0, 0.68, -10.99, -10.99, -10.99, -10.99, -10.72, -10.43, -10.75, -10.75, -10.43, -9.84, -9.84, -9.84, -9.84, -9.5, -9.5, -9.22, -9.22, -9.49, -9.12, -8.85, -8.85, -8.85, -8.85, -8.2, -8.2, -8.2, -8.2, -8.2, -7.8, -7.8, -7.8, -7.55, -7.13, -6.88, -6.88, -6.88, -6.43, -6.46, -6.46, -6.46, -6.46, -6.25, -6.5, -5.86, -5.48, -4.72, -5.4, -5.2, -5.23, -4.76, -4.08, -3.42, -2.93, -2.28, -1.73, -1.12, -0.57, 0.0, 0.57, 3.22, 5.08, 5.99, 4.9, 6.52, 6.9, 7.6, 6.82, 6.11, 6.11, 6.01, 6.01, 4.83, 4.88, 6.08, 8.9, 11.02, 8.0, 3.1, 0.0, 0.0, 0.0, 2.1, 3.53, 4.24, 4.17, 3.64, 3.64, 3.71, 2.91, 2.33, 2.25, 1.46, 0.74, 0.0, 0.0, 0.0, 0.0, 0.0, -10.99, -10.99, -10.99, -10.72, -10.72, -10.43, -10.43, -10.43, -10.13, -10.13, -10.13, -9.84, -9.84, -9.5, -9.5, -9.5, -9.22, -9.22, -8.85, -8.85, -8.85, -8.85, -8.58, -8.2, -8.2, -8.2, -8.2, -8.2, -7.8, -7.8, -7.8, -7.55, -7.13, -7.13, -6.88, -6.88, -6.88, -6.43, -6.43, -6.46, -6.46, -6.25, -6.5, -6.27, -5.83, -5.67, -5.0, -5.26, -5.04, -4.6, -4.6, -3.94, -3.3, -2.97, -2.3, -1.75, -1.2, -0.58, 0.0, 2.82, 4.65, 5.31, 6.64, 6.13, 6.52, 7.2, 6.18, 6.63, 5.77, 5.69, 5.59, 4.83, 4.96, 4.88, 7.96, 11.16, 11.95, 10.46, 7.2, 5.8, 5.2, 5.8, 6.32, 5.73, 5.09, 4.18, 3.58, 3.1, 2.28, 1.48, 0.76, 0.0, 0.0, 0.0, 0.0, 0.0, 0.0, 0.0, -11.28, -11.28, -10.72, -10.72, -10.72, -10.72, -10.43, -10.43, -10.13, -9.82, -10.13, -9.84, -9.5, -9.5, -9.5, -9.5, -9.5, -9.22, -8.85, -8.85, -8.85, -8.58, -8.58, -8.2, -8.2, -8.2, -8.2, -8.2, -8.2, -7.8, -7.8, -7.8, -7.55, -7.13, -7.13, -6.88, -6.88, -6.88, -6.43, -6.43, -6.46, -6.46, -6.5, -6.5, -6.5, -5.8, -4.51, -4.57, -4.4, -4.63, -3.97, -3.97, -3.32, -3.32, -2.83, -2.19, -1.69, -1.16, 0.56, 3.04, 4.11, 4.55, 4.55, 6.13, 6.52, 7.2, 6.28, 6.28, 5.77, 5.24, 4.83, 4.26, 4.0, 4.12, 5.1, 5.8, 8.74, 11.26, 12.08, 11.16, 10.73, 9.92, 8.48, 7.05, 5.73, 4.75, 3.75, 2.28, 1.48, 0.76, 0.0, 0.0, 0.0, -0.8, -0.8, 0.0, 0.0, 0.0, -10.69, -10.69, -10.69, -10.4, -10.4, -10.72, -10.72, -10.12, -9.82, -9.82, -9.82, -9.82, -9.5, -9.21, -9.21, -9.5, -9.5, -8.85, -8.85, -8.85, -8.85, -8.58, -8.2, -8.2, -8.2, -8.2, -8.2, -8.2, -8.2, -8.2, -7.8, -7.8, -7.55, -7.55, -7.13, -6.88, -6.88, -6.88, -6.88, -6.88, -6.43, -6.46, -6.46, -6.5, -6.5, -5.8, -5.17, -4.05, -4.08, -3.45, -3.49, -3.32, -2.83, -2.86, -2.86, -2.33, -1.14, 0.0, 0.59, 2.32, 2.84, 3.79, 4.37, 6.13, 6.13, 6.9, 6.28, 6.01, 5.24, 4.83, 4.26, 4.03, 4.26, 4.34, 4.0, 3.95, 5.45, 7.95, 10.43, 12.34, 12.21, 11.65, 10.27, 8.1, 6.44, 5.15, 4.5, 3.04, 1.45, 0.74, 0.0, 0.0, -0.78, -1.54, -1.58, -0.82, -0.82, -0.82, -10.69, -10.69, -10.69, -10.69, -10.4, -10.4, -10.4, -10.12, -10.12, -9.82, -9.82, -9.5, -9.5, -9.5, -9.21, -9.21, -9.21, -9.14, -8.85, -8.85, -8.58, -8.58, -8.2, -8.2, -8.2, -8.2, -8.2, -8.2, -8.2, -8.2, -7.8, -7.8, -7.8, -7.8, -7.55, -7.13, -6.88, -6.88, -6.88, -6.88, -6.88, -6.68, -6.46, -6.25, -5.8, -5.83, -5.17, -4.51, -4.05, -3.39, -2.9, -2.93, -2.28, -2.3, -1.75, -1.12, -0.54, 0.0, 0.58, 1.65, 2.18, 3.12, 3.79, 4.55, 6.52, 5.93, 5.69, 4.95, 4.83, 4.83, 5.03, 4.42, 4.26, 4.12, 4.2, 4.07, 4.06, 5.41, 8.07, 9.76, 11.04, 11.04, 9.5, 7.38, 6.44, 5.81, 4.35, 3.01, 0.76, 0.0, -1.06, -2.28, -2.28, -2.44, -2.34, -2.41, -2.41, -2.41, -10.69, -10.69, -10.69, -10.69, -10.69, -10.4, -10.12, -10.12, -10.12, -10.12, -9.82, -9.5, -9.5, -9.5, -9.21, -9.21, -8.86, -8.86, -8.86, -8.86, -8.58, -8.58, -8.2, -8.2, -8.2, -8.2, -8.2, -8.2, -8.2, -8.2, -8.2, -7.8, -7.8, -7.8, -7.8, -7.53, -6.88, -6.88, -6.88, -6.88, -7.13, -6.46, -6.46, -6.25, -5.8, -5.83, -5.17, -4.51, -4.72, -4.05, -3.39, -2.9, -2.35, -1.71, -1.63, -0.56, -0.59, 0.0, 0.0, 1.2, 1.7, 2.4, 3.49, 4.65, 4.84, 5.93, 5.37, 5.06, 4.95, 4.95, 4.95, 5.24, 4.26, 4.12, 4.2, 3.36, 3.19, 3.91, 6.35, 7.91, 10.48, 10.56, 8.82, 7.3, 6.44, 4.95, 3.51, 1.43, 0.0, -1.05, -3.18, -3.29, -4.01, -4.01, -3.16, -3.25, -3.25, -3.25, -10.36, -10.36, -10.36, -10.36, -10.09, -10.09, -9.8, -9.8, -9.8, -9.8, -9.5, -9.21, -9.21, -9.5, -9.5, -9.21, -8.86, -8.86, -8.86, -8.86, -8.58, -8.58, -8.2, -8.2, -8.2, -8.2, -8.2, -8.2, -8.2, -8.2, -8.2, -7.8, -7.8, -7.53, -7.53, -7.53, -7.53, -6.88, -6.88, -7.13, -7.13, -6.46, -6.46, -6.25, -5.8, -5.83, -5.17, -4.51, -4.72, -4.05, -3.39, -3.39, -2.75, -2.23, -1.71, -1.15, -0.56, -0.56, 0.0, 0.56, 1.14, 2.18, 2.84, 4.11, 5.21, 5.93, 5.37, 5.93, 6.28, 5.37, 4.95, 5.24, 4.26, 4.12, 3.49, 3.36, 3.29, 4.1, 5.73, 7.23, 8.51, 9.51, 9.67, 9.4, 7.82, 5.08, 2.17, 0.0, -1.63, -3.96, -5.4, -5.51, -5.63, -5.41, -4.6, -3.78, -3.78, -3.78, -10.36, -10.36, -10.36, -10.09, -10.09, -10.09, -10.09, -9.8, -9.8, -9.8, -9.5, -9.5, -9.21, -9.21, -9.5, -9.5, -8.86, -8.86, -8.86, -8.86, -8.86, -8.49, -8.49, -8.2, -8.2, -8.2, -8.2, -8.2, -8.2, -8.2, -8.2, -8.2, -7.93, -7.53, -7.53, -7.53, -7.53, -7.8, -7.13, -7.13, -6.9, -6.46, -6.25, -6.25, -6.04, -5.83, -5.17, -4.68, -4.72, -4.05, -4.05, -3.39, -2.87, -2.87, -2.35, -1.71, -1.73, -1.12, -0.54, 0.0, 0.58, 1.7, 2.84, 3.49, 4.65, 5.93, 6.28, 6.28, 6.28, 4.95, 4.95, 4.26, 4.12, 4.34, 3.49, 4.07, 4.13, 5.06, 6.65, 7.13, 7.11, 8.83, 10.34, 11.81, 10.36, 6.35, 2.76, 0.0, -2.95, -5.09, -6.57, -7.36, -7.08, -6.31, -6.05, -5.28, -5.28, -5.28, -10.65, -10.65, -10.06, -9.77, -10.09, -10.09, -10.09, -10.09, -9.8, -9.8, -9.5, -9.5, -9.21, -9.21, -9.21, -8.87, -9.16, -8.86, -8.86, -8.86, -8.86, -8.86, -8.49, -8.49, -8.2, -8.2, -8.2, -8.2, -8.2, -8.2, -8.2, -8.2, -8.2, -8.18, -7.53, -7.53, -7.8, -7.55, -7.13, -6.9, -6.9, -6.25, -6.5, -6.5, -5.83, -5.83, -5.17, -5.17, -4.51, -4.05, -4.05, -3.39, -3.39, -3.39, -2.9, -2.25, -1.73, -1.12, -0.57, 0.0, 0.57, 1.16, 2.4, 3.12, 4.07, 5.15, 6.44, 6.82, 6.82, 5.77, 4.95, 4.42, 4.26, 4.12, 4.0, 4.71, 5.52, 5.63, 6.87, 7.01, 6.52, 7.11, 9.67, 11.16, 10.36, 7.05, 1.41, 0.0, 0.0, -1.52, -3.79, -6.73, -8.03, -7.97, -7.27, -6.14, -6.14, -6.14, -10.65, -10.3, -10.06, -10.06, -9.77, -9.77, -9.77, -10.09, -10.09, -9.8, -9.5, -9.5, -9.5, -9.21, -9.21, -8.87, -8.87, -8.59, -8.86, -8.86, -8.86, -8.86, -8.49, -8.49, -8.49, -8.49, -8.2, -8.2, -8.2, -8.2, -8.2, -8.2, -8.2, -8.18, -7.93, -7.53, -7.8, -7.55, -7.13, -6.9, -6.46, -6.5, -6.5, -5.83, -5.83, -5.83, -5.17, -5.17, -4.51, -4.72, -4.05, -4.05, -3.53, -3.39, -2.9, -2.25, -2.28, -1.67, -0.57, 0.0, 0.0, 1.14, 1.7, 2.44, 3.48, 5.21, 6.21, 7.35, 7.03, 6.44, 5.69, 5.24, 4.42, 3.27, 4.34, 5.76, 6.42, 6.31, 6.2, 5.72, 5.6, 5.8, 6.52, 7.7, 6.31, 2.14, 0.7, 1.39, 2.12, 2.18, 1.45, -2.11, -6.64, -8.4, -7.69, -6.68, -6.68, -6.68, -10.3, -10.06, -10.06, -10.06, -9.77, -9.77, -9.77, -9.77, -9.77, -9.8, -9.5, -9.5, -9.5, -9.21, -9.21, -8.87, -8.87, -8.87, -8.59, -8.86, -8.86, -8.86, -8.49, -8.49, -8.49, -8.49, -8.2, -8.2, -8.2, -8.2, -8.2, -8.2, -8.2, -8.2, -7.93, -7.8, -7.8, -7.55, -7.13, -6.9, -6.92, -6.5, -6.5, -5.83, -5.83, -5.62, -5.17, -5.17, -4.98, -4.51, -4.51, -4.21, -4.05, -3.39, -2.9, -2.93, -2.28, -1.67, -1.14, -0.55, 0.0, 0.58, 1.16, 2.2, 2.86, 3.09, 5.2, 6.94, 7.35, 6.82, 6.79, 6.73, 6.01, 6.11, 5.24, 6.32, 6.53, 6.42, 5.52, 4.8, 4.87, 4.58, 4.75, 3.95, 1.43, 0.73, 0.7, 1.41, 2.19, 2.19, 2.1, 0.71, -3.16, -5.51, -6.16, -5.43, -5.43, -5.43, -10.06, -10.06, -10.06, -10.06, -10.06, -9.77, -9.77, -9.48, -9.48, -9.48, -9.19, -9.5, -9.5, -9.5, -9.21, -8.87, -8.87, -8.87, -8.87, -8.59, -8.86, -8.86, -8.49, -8.49, -8.49, -8.49, -8.2, -8.2, -8.2, -8.2, -8.2, -8.2, -8.2, -8.2, -8.2, -7.8, -7.55, -7.55, -6.9, -7.16, -6.92, -6.5, -6.27, -5.83, -5.83, -5.62, -5.17, -5.4, -5.4, -4.51, -4.51, -4.51, -4.02, -3.39, -3.42, -2.93, -2.3, -1.67, -1.14, -0.55, 0.0, 0.0, 0.59, 1.73, 2.22, 2.53, 4.57, 5.75, 6.16, 6.18, 6.11, 6.39, 6.32, 6.73, 6.44, 6.73, 6.24, 5.64, 4.71, 4.07, 4.13, 4.01, 4.06, 1.6, 1.5, 1.44, 1.42, 0.7, 0.0, 0.0, -0.72, 0.0, 0.0, -2.24, -2.97, -2.6, -2.6, -2.6, -10.06, -10.06, -10.06, -10.06, -10.06, -10.06, -9.48, -9.48, -9.48, -9.48, -9.48, -9.19, -9.5, -9.5, -9.5, -8.87, -8.87, -8.87, -8.87, -8.59, -8.59, -8.59, -8.22, -8.49, -8.49, -8.49, -8.2, -8.2, -8.2, -8.2, -8.2, -8.2, -8.2, -8.2, -8.2, -7.8, -7.55, -7.55, -6.9, -7.16, -6.92, -6.5, -6.27, -5.83, -5.62, -5.62, -5.86, -5.4, -5.4, -5.17, -5.17, -4.68, -4.21, -4.05, -3.42, -2.93, -2.3, -2.19, -1.69, -0.55, -0.56, 0.0, 0.53, 1.19, 1.57, 1.84, 2.4, 3.09, 5.51, 5.58, 5.06, 5.37, 6.01, 6.73, 6.39, 6.39, 5.89, 5.76, 5.06, 4.2, 4.07, 4.8, 3.95, 3.99, 4.36, 4.17, 2.15, 0.0, -1.42, -3.61, -3.53, -2.2, 0.0, 0.0, -1.26, -1.26, -1.26, -1.26, -10.06, -10.06, -10.06, -10.06, -10.06, -10.06, -9.48, -9.48, -9.48, -9.48, -9.48, -9.48, -9.19, -9.5, -9.5, -9.21, -8.87, -8.87, -8.87, -8.87, -8.59, -8.59, -8.59, -8.86, -8.49, -8.49, -8.49, -8.2, -8.2, -8.2, -8.2, -8.2, -8.2, -8.2, -8.2, -7.55, -7.55, -7.55, -7.16, -7.16, -6.92, -6.5, -6.27, -6.27, -5.83, -5.62, -5.86, -5.4, -5.4, -5.17, -5.17, -5.17, -4.72, -4.05, -3.42, -3.45, -2.97, -2.3, -1.69, -1.09, -0.56, 0.0, 0.0, 0.54, 1.19, 1.76, 1.95, 2.91, 5.09, 4.54, 4.74, 5.06, 4.95, 5.69, 5.69, 5.24, 5.1, 4.71, 4.83, 4.2, 4.2, 4.25, 4.87, 6.47, 6.42, 5.51, 3.1, 0.76, -0.76, -3.9, -4.46, -2.97, -1.79, 0.0, 0.0, 0.0, 0.0, 0.0, -9.72, -9.72, -9.72, -9.72, -9.72, -9.72, -9.46, -9.17, -9.48, -9.48, -9.48, -9.48, -9.19, -9.19, -9.5, -9.5, -8.87, -8.87, -8.87, -8.87, -8.59, -8.59, -8.59, -8.86, -8.86, -8.49, -8.49, -8.2, -8.2, -8.2, -8.2, -8.2, -8.2, -8.2, -7.95, -7.55, -7.55, -7.57, -7.16, -6.92, -6.92, -6.5, -6.27, -6.27, -5.83, -5.62, -5.86, -5.86, -5.4, -5.4, -5.17, -5.17, -4.72, -3.89, -3.91, -3.45, -2.8, -2.3, -1.69, -1.71, -1.18, -0.57, 0.0, 0.0, 0.61, 1.19, 1.76, 2.23, 3.35, 4.19, 4.43, 5.15, 5.06, 4.95, 5.24, 4.42, 3.55, 3.6, 3.45, 4.0, 4.0, 4.13, 4.06, 4.81, 5.65, 4.7, 3.62, 2.1, 0.69, -0.79, -1.26, 0.0, 1.26, 1.9, 1.98, 1.98, 1.98, 1.98, -10.01, -10.01, -9.72, -9.72, -9.72, -9.72, -9.46, -9.46, -9.17, -9.48, -9.48, -9.48, -9.48, -9.19, -9.19, -9.5, -8.87, -8.87, -8.87, -8.87, -8.87, -8.59, -8.86, -8.86, -8.86, -8.86, -8.49, -8.49, -8.2, -8.2, -8.2, -8.2, -8.2, -8.2, -7.95, -7.83, -7.83, -7.57, -7.16, -6.92, -6.92, -6.5, -6.27, -6.27, -6.27, -5.83, -5.86, -5.86, -5.86, -5.4, -5.4, -4.72, -4.54, -4.08, -3.91, -3.45, -3.3, -2.83, -2.21, -1.71, -1.18, -0.56, 0.0, 0.0, 0.54, 1.19, 1.08, 2.23, 2.84, 3.48, 4.54, 5.21, 5.15, 5.37, 4.95, 4.95, 4.16, 3.4, 3.4, 3.27, 3.32, 3.25, 2.34, 2.33, 2.34, 2.37, 2.91, 2.89, 2.22, 1.43, 2.18, 3.09, 4.46, 4.71, 4.96, 5.49, 5.49, 5.49, -10.01, -10.01, -9.72, -9.72, -9.72, -9.46, -9.46, -9.46, -9.17, -9.48, -9.48, -9.48, -9.48, -9.19, -9.19, -9.19, -9.17, -8.87, -8.87, -8.87, -8.87, -8.59, -8.86, -8.86, -8.86, -8.86, -8.86, -8.49, -8.2, -8.2, -8.2, -8.2, -8.2, -7.95, -7.95, -7.83, -7.57, -7.57, -7.16, -6.92, -6.92, -6.92, -6.27, -6.27, -6.27, -6.27, -5.86, -5.86, -5.86, -5.4, -5.4, -4.72, -4.54, -4.08, -3.91, -3.61, -3.45, -2.83, -2.33, -2.37, -1.71, -1.1, -0.57, 0.0, 0.0, 0.61, 1.19, 1.76, 2.23, 3.48, 4.6, 4.54, 4.43, 4.74, 5.06, 4.95, 4.42, 3.55, 3.4, 3.45, 3.32, 2.39, 1.58, 0.76, 0.0, 0.78, 1.58, 2.88, 3.52, 3.53, 3.47, 4.31, 5.2, 5.48, 6.21, 6.21, 6.21, 6.21, -10.01, -10.01, -10.01, -9.72, -9.72, -9.46, -9.46, -9.46, -9.17, -9.17, -9.48, -9.48, -9.48, -9.48, -9.19, -9.19, -8.87, -8.87, -8.87, -8.87, -8.87, -8.86, -8.86, -8.86, -8.86, -8.86, -8.86, -8.49, -8.49, -8.2, -8.2, -8.2, -7.95, -7.95, -7.83, -7.57, -7.57, -7.57, -7.32, -6.92, -6.92, -6.92, -6.92, -6.27, -6.27, -6.27, -5.86, -5.86, -5.86, -5.4, -5.2, -4.54, -4.54, -4.08, -3.91, -3.61, -3.45, -2.83, -2.86, -2.21, -1.71, -1.73, -1.2, -0.58, 0.0, 0.0, 0.61, 1.08, 1.58, 2.23, 3.14, 3.79, 4.54, 4.43, 4.29, 4.16, 3.4, 3.4, 2.4, 3.27, 2.57, 1.62, 0.83, 0.0, 0.0, 0.0, 0.79, 2.83, 4.35, 4.42, 4.37, 4.17, 4.86, 4.71, 5.48, 5.48, 5.48, 5.48, -10.01, -10.01, -10.01, -9.72, -9.72, -9.46, -9.46, -9.46, -9.46, -9.17, -9.48, -9.48, -9.48, -9.48, -9.48, -9.19, -9.19, -8.87, -8.87, -8.87, -8.87, -8.59, -8.86, -8.86, -8.86, -8.86, -8.22, -8.22, -8.22, -8.22, -7.95, -7.95, -7.95, -8.22, -7.83, -7.57, -7.57, -7.32, -7.32, -6.92, -6.92, -6.92, -6.92, -6.5, -6.27, -6.53, -5.86, -5.86, -5.86, -5.2, -5.2, -4.54, -4.76, -4.08, -3.91, -3.94, -3.45, -3.49, -2.83, -2.86, -2.37, -1.73, -1.1, -0.57, 0.0, 0.0, 0.0, 0.55, 1.11, 1.6, 2.23, 3.48, 4.19, 4.02, 3.47, 2.64, 2.51, 2.4, 1.65, 1.58, 1.75, 0.82, 0.83, 0.0, 0.0, 0.77, 1.61, 3.09, 4.35, 4.35, 4.3, 4.31, 4.24, 4.31, 4.31, 4.94, 4.94, 4.94, -10.01, -10.01, -10.01, -10.01, -9.72, -9.46, -9.46, -9.46, -9.46, -9.17, -9.17, -9.17, -9.17, -9.48, -9.48, -9.19, -9.19, -9.17, -8.87, -8.87, -8.87, -8.87, -8.59, -8.59, -8.59, -8.59, -8.22, -8.22, -8.22, -8.22, -8.22, -8.22, -8.22, -7.83, -7.57, -7.57, -7.57, -7.32, -7.59, -7.19, -7.19, -6.92, -6.92, -6.27, -6.53, -6.53, -5.86, -5.86, -5.86, -5.2, -5.2, -4.54, -4.76, -4.08, -3.91, -4.12, -3.45, -3.49, -2.83, -2.86, -2.37, -2.23, -1.73, -1.12, -0.58, 0.0, 0.0, 0.0, 0.55, 1.27, 1.84, 2.53, 2.84, 3.0, 2.8, 1.63, 1.73, 1.65, 1.75, 0.8, 0.81, 0.82, 0.8, 0.79, 0.8, 1.57, 3.09, 3.16, 4.01, 4.75, 4.71, 4.66, 4.24, 4.31, 4.31, 4.55, 4.55, 4.55, -10.01, -10.01, -10.01, -10.01, -9.72, -9.46, -9.46, -9.46, -9.46, -9.17, -9.17, -9.17, -9.17, -9.48, -9.48, -9.19, -9.19, -9.17, -8.87, -8.87, -8.87, -8.87, -8.59, -8.59, -8.59, -8.59, -8.22, -8.22, -8.22, -8.22, -8.22, -8.22, -8.22, -7.83, -7.57, -7.57, -7.57, -7.32, -7.59, -7.19, -7.19, -6.92, -6.92, -6.27, -6.53, -6.53, -5.86, -5.86, -5.86, -5.2, -5.2, -4.54, -4.76, -4.08, -3.91, -4.12, -3.45, -3.49, -2.83, -2.86, -2.37, -2.23, -1.73, -1.12, -0.58, 0.0, 0.0, 0.0, 0.55, 1.27, 1.84, 2.53, 2.84, 3.0, 2.8, 1.63, 1.65, 1.65, 1.75, 0.8, 0.81, 0.82, 0.0, 0.81, 1.58, 2.32, 3.16, 3.9, 4.75, 4.75, 4.75, 4.71, 4.76, 4.0, 3.87, 3.87, 3.87, 3.87]}]